PD2BVG Weather Reports


Display with metric or nautical units.
time (UTC)temp
F
wind
direction
speed
MPH
gust
MPH
rain 1hr
in
rain 24hr
in
rain mn
in
humidity
%
barometer
mb
20260506174830 56 341 8.0 18.0 0.00 0.00 0.00 73 1011.4
20260506174730 56 0 8.0 18.0 0.00 0.00 0.00 73 1011.4
20260506174628 56 324 7.0 18.0 0.00 0.00 0.00 73 1011.4
20260506174530 56 28 7.0 18.0 0.00 0.00 0.00 73 1011.3
20260506174427 56 357 9.0 18.0 0.00 0.00 0.00 72 1011.3
20260506174328 56 327 9.0 18.0 0.00 0.00 0.00 72 1011.4
20260506174227 56 336 10.0 18.0 0.00 0.00 0.00 72 1011.4
20260506174127 56 334 10.0 18.0 0.00 0.00 0.00 72 1011.2
20260506174026 56 316 10.0 18.0 0.00 0.00 0.00 72 1011.3
20260506173927 56 338 10.0 15.0 0.00 0.00 0.00 72 1011.2
20260506173825 56 358 9.0 15.0 0.00 0.00 0.00 72 1011.3
20260506173725 56 353 8.0 14.0 0.00 0.00 0.00 72 1011.2
20260506173624 56 17 9.0 14.0 0.00 0.00 0.00 72 1011.2
20260506173524 56 0 9.0 16.0 0.00 0.00 0.00 72 1011.2
20260506173424 56 337 9.0 16.0 0.00 0.00 0.00 72 1011.2
20260506173326 56 303 9.0 16.0 0.00 0.00 0.00 72 1011.3
20260506173224 56 344 9.0 17.0 0.00 0.00 0.00 72 1011.2
20260506173124 56 0 7.0 17.0 0.00 0.00 0.00 72 1011.2
20260506173018 56 11 7.0 17.0 0.00 0.00 0.00 72 1011.2
20260506172915 56 348 8.0 17.0 0.00 0.00 0.00 72 1011.3
20260506172815 56 353 8.0 17.0 0.00 0.00 0.00 71 1011.3
20260506172717 56 348 9.0 17.0 0.00 0.00 0.00 71 1011.1
20260506172617 56 338 9.0 17.0 0.00 0.00 0.00 71 1011.1
20260506172513 56 333 9.0 17.0 0.00 0.00 0.00 71 1011.2
20260506172413 56 331 10.0 17.0 0.00 0.00 0.00 71 1011.1
20260506172308 56 333 10.0 15.0 0.00 0.00 0.00 71 1011.1
20260506172207 56 309 9.0 15.0 0.00 0.00 0.00 71 1011.2
20260506172106 56 333 8.0 15.0 0.00 0.00 0.00 71 1011.2
20260506172004 56 348 9.0 15.0 0.00 0.00 0.00 71 1011.1
20260506171903 56 329 9.0 15.0 0.00 0.00 0.00 71 1011.1
20260506171802 56 0 9.0 15.0 0.00 0.00 0.00 71 1011.2
20260506171702 56 351 10.0 15.0 0.00 0.00 0.00 70 1011.1
20260506171559 56 0 10.0 15.0 0.00 0.00 0.00 70 1011.1
20260506171459 56 341 9.0 15.0 0.00 0.00 0.00 70 1011.2
20260506171359 56 1 9.0 15.0 0.00 0.00 0.00 70 1011.1
20260506171257 57 6 9.0 16.0 0.00 0.00 0.00 70 1011.1
20260506171158 57 338 9.0 16.0 0.00 0.00 0.00 70 1011.1
20260506171058 57 345 7.0 16.0 0.00 0.00 0.00 70 1011.1
20260506170958 56 7 7.0 16.0 0.00 0.00 0.00 70 1011.1
20260506170855 56 351 9.0 16.0 0.00 0.00 0.00 69 1011.1
20260506170757 56 357 10.0 16.0 0.00 0.00 0.00 69 1011.0
20260506170656 57 357 10.0 16.0 0.00 0.00 0.00 69 1011.0
20260506170556 57 350 9.0 16.0 0.00 0.00 0.00 70 1011.1
20260506170456 57 344 10.0 16.0 0.00 0.00 0.00 69 1011.0
20260506170355 57 0 9.0 16.0 0.00 0.00 0.00 70 1011.1
20260506170254 57 347 8.0 15.0 0.00 0.00 0.00 70 1011.1
20260506170153 57 357 7.0 15.0 0.00 0.00 0.00 70 1011.1
20260506170053 57 0 6.0 16.0 0.00 0.00 0.00 70 1011.0
20260506165953 56 344 7.0 16.0 0.00 0.00 0.00 69 1011.0
20260506165853 56 354 9.0 16.0 0.00 0.00 0.00 69 1011.0
20260506165753 57 313 9.0 16.0 0.00 0.00 0.00 69 1011.0
20260506165650 57 344 8.0 16.0 0.00 0.00 0.00 69 1011.0
20260506165550 57 326 10.0 16.0 0.00 0.00 0.00 69 1011.0
20260506165449 57 329 9.0 16.0 0.00 0.00 0.00 70 1011.0
20260506165348 57 0 8.0 16.0 0.00 0.00 0.00 70 1011.0
20260506165250 57 0 9.0 16.0 0.00 0.00 0.00 70 1010.9
20260506165148 57 333 9.0 16.0 0.00 0.00 0.00 70 1011.0
20260506165048 57 329 8.0 16.0 0.00 0.00 0.00 70 1011.0
20260506164947 57 331 9.0 16.0 0.00 0.00 0.00 69 1010.9
20260506164846 57 326 9.0 16.0 0.00 0.00 0.00 69 1010.9
20260506164745 57 330 8.0 16.0 0.00 0.00 0.00 69 1011.0
20260506164645 57 0 8.0 16.0 0.00 0.00 0.00 69 1011.0
20260506164544 57 341 8.0 16.0 0.00 0.00 0.00 69 1010.9
20260506164445 57 331 9.0 16.0 0.00 0.00 0.00 69 1011.0
20260506164344 57 350 6.0 15.0 0.00 0.00 0.00 69 1010.9
20260506164244 57 351 6.0 15.0 0.00 0.00 0.00 69 1011.0
20260506164144 57 340 8.0 15.0 0.00 0.00 0.00 69 1011.0
20260506164045 57 0 10.0 15.0 0.00 0.00 0.00 69 1010.9
20260506163943 57 347 10.0 15.0 0.00 0.00 0.00 69 1011.0
20260506163838 57 333 9.0 15.0 0.00 0.00 0.00 69 1010.9
20260506163740 57 343 9.0 15.0 0.00 0.00 0.00 69 1011.0
20260506163639 57 354 10.0 15.0 0.00 0.00 0.00 69 1010.8
20260506163540 57 0 11.0 15.0 0.00 0.00 0.00 69 1010.9
20260506163439 57 334 10.0 14.0 0.00 0.00 0.00 69 1010.9
20260506163338 57 345 9.0 14.0 0.00 0.00 0.00 69 1010.9
20260506163238 57 353 9.0 14.0 0.00 0.00 0.00 69 1010.9
20260506163137 57 0 9.0 14.0 0.00 0.00 0.00 69 1010.9
20260506163038 57 358 9.0 14.0 0.00 0.00 0.00 69 1011.0
20260506162936 57 0 9.0 14.0 0.00 0.00 0.00 69 1011.0
20260506162838 57 354 8.0 14.0 0.00 0.00 0.00 69 1010.8
20260506162738 58 354 7.0 17.0 0.00 0.00 0.00 69 1010.9
20260506162635 57 344 7.0 17.0 0.00 0.00 0.00 69 1010.9
20260506162536 57 341 8.0 17.0 0.00 0.00 0.00 69 1010.9
20260506162435 57 338 7.0 17.0 0.00 0.00 0.00 70 1010.8
20260506162334 57 0 8.0 17.0 0.00 0.00 0.00 70 1010.8
20260506162234 58 265 10.0 17.0 0.00 0.00 0.00 70 1010.9
20260506162130 58 343 9.0 17.0 0.00 0.00 0.00 70 1010.9
20260506162031 58 357 9.0 17.0 0.00 0.00 0.00 70 1010.8
20260506161931 58 18 10.0 17.0 0.00 0.00 0.00 70 1010.8
20260506161831 58 357 10.0 17.0 0.00 0.00 0.00 70 1010.8
20260506161731 58 334 9.0 17.0 0.00 0.00 0.00 70 1010.8
20260506161631 58 0 9.0 17.0 0.00 0.00 0.00 70 1010.8
20260506161530 58 319 9.0 17.0 0.00 0.00 0.00 71 1010.8
20260506161430 58 337 9.0 17.0 0.00 0.00 0.00 72 1010.8
20260506161330 58 0 9.0 17.0 0.00 0.00 0.00 72 1010.8
20260506161230 58 354 7.0 17.0 0.00 0.00 0.00 72 1010.7
20260506161129 57 353 8.0 17.0 0.00 0.00 0.00 71 1010.8
20260506161029 57 331 10.0 17.0 0.00 0.00 0.00 71 1010.9
20260506160930 58 10 10.0 17.0 0.00 0.00 0.00 71 1010.8
20260506160829 58 309 9.0 17.0 0.00 0.00 0.00 71 1010.9
20260506160730 58 340 10.0 17.0 0.00 0.00 0.00 70 1010.9
20260506160630 58 331 11.0 17.0 0.00 0.00 0.00 71 1010.8
20260506160529 58 348 11.0 15.0 0.00 0.00 0.00 71 1010.9
20260506160429 58 343 10.0 15.0 0.00 0.00 0.00 71 1010.9
20260506160329 58 337 9.0 15.0 0.00 0.00 0.00 70 1010.9
20260506160229 58 7 9.0 15.0 0.00 0.00 0.00 71 1010.9
20260506160129 58 358 9.0 15.0 0.00 0.00 0.00 71 1010.9
20260506160028 58 355 10.0 15.0 0.00 0.00 0.00 71 1011.0
20260506155928 58 323 9.0 15.0 0.00 0.00 0.00 72 1010.9
20260506155828 58 344 8.0 15.0 0.00 0.00 0.00 72 1010.9
20260506155727 58 327 8.0 15.0 0.00 0.00 0.00 72 1010.9
20260506155630 58 353 8.0 15.0 0.00 0.00 0.00 72 1010.9
20260506155527 58 272 9.0 15.0 0.00 0.00 0.00 72 1010.9
20260506155427 58 341 9.0 15.0 0.00 0.00 0.00 72 1010.8
20260506155327 58 351 9.0 15.0 0.00 0.00 0.00 72 1010.9
20260506155225 58 337 9.0 15.0 0.00 0.00 0.00 71 1010.8
20260506155124 58 320 10.0 15.0 0.00 0.00 0.00 71 1010.9
20260506155025 58 0 9.0 15.0 0.00 0.00 0.00 71 1010.9
20260506154924 58 336 8.0 15.0 0.00 0.00 0.00 71 1010.8
20260506154823 58 334 8.0 14.0 0.00 0.00 0.00 70 1010.9
20260506154723 58 358 9.0 14.0 0.00 0.00 0.00 70 1010.9
20260506154620 58 353 9.0 14.0 0.00 0.00 0.00 71 1010.8
20260506154521 58 348 8.0 14.0 0.00 0.00 0.00 72 1010.8
20260506154420 58 347 7.0 14.0 0.00 0.00 0.00 71 1010.9
20260506154320 58 341 7.0 14.0 0.00 0.00 0.00 71 1010.8
20260506154219 58 305 7.0 14.0 0.00 0.00 0.00 71 1010.9
20260506154118 58 0 8.0 14.0 0.00 0.00 0.00 70 1010.8
20260506154018 58 336 9.0 14.0 0.00 0.00 0.00 70 1010.9
20260506153918 58 319 9.0 14.0 0.00 0.00 0.00 70 1010.8
20260506153818 58 6 7.0 14.0 0.00 0.00 0.00 70 1010.9
20260506153714 58 21 8.0 14.0 0.00 0.00 0.00 71 1010.9
20260506153615 58 324 8.0 14.0 0.00 0.00 0.00 71 1010.8
20260506153514 58 348 7.0 14.0 0.00 0.00 0.00 71 1010.9
20260506153415 58 336 8.0 15.0 0.00 0.00 0.00 72 1010.9
20260506153313 58 344 9.0 15.0 0.00 0.00 0.00 72 1010.9
20260506153213 58 350 9.0 15.0 0.00 0.00 0.00 72 1010.8
20260506153114 58 341 8.0 15.0 0.00 0.00 0.00 72 1010.8
20260506153013 58 340 6.0 15.0 0.00 0.00 0.00 72 1010.9
20260506152914 58 343 7.0 15.0 0.00 0.00 0.00 71 1010.9
20260506152812 58 0 7.0 15.0 0.00 0.00 0.00 70 1010.9
20260506152710 58 344 7.0 15.0 0.00 0.00 0.00 70 1010.9
20260506152622 58 343 9.0 15.0 0.00 0.00 0.00 70 1011.0
20260506152508 58 326 9.0 15.0 0.00 0.00 0.00 70 1010.8
20260506152409 58 350 8.0 15.0 0.00 0.00 0.00 70 1010.9
20260506152309 58 0 8.0 15.0 0.00 0.00 0.00 69 1010.9
20260506152210 58 354 9.0 15.0 0.00 0.00 0.00 69 1010.9
20260506152108 59 338 9.0 15.0 0.00 0.00 0.00 69 1010.9
20260506152009 59 327 8.0 15.0 0.00 0.00 0.00 70 1010.8
20260506151907 59 340 7.0 15.0 0.00 0.00 0.00 70 1010.9
20260506151808 59 344 7.0 15.0 0.00 0.00 0.00 70 1010.8
20260506151707 59 355 7.0 14.0 0.00 0.00 0.00 70 1010.8
20260506151607 59 307 7.0 14.0 0.00 0.00 0.00 70 1010.9
20260506151507 59 331 7.0 14.0 0.00 0.00 0.00 68 1010.8
20260506151406 59 0 8.0 14.0 0.00 0.00 0.00 67 1010.8
20260506151305 59 341 7.0 13.0 0.00 0.00 0.00 67 1010.8
20260506151203 59 331 8.0 13.0 0.00 0.00 0.00 67 1010.8
20260506151103 59 355 9.0 13.0 0.00 0.00 0.00 67 1010.8
20260506151002 59 313 9.0 13.0 0.00 0.00 0.00 67 1010.8
20260506150901 59 6 7.0 13.0 0.00 0.00 0.00 68 1010.8
20260506150801 59 358 7.0 13.0 0.00 0.00 0.00 68 1010.8
20260506150703 59 341 8.0 13.0 0.00 0.00 0.00 68 1010.8
20260506150601 59 341 9.0 13.0 0.00 0.00 0.00 68 1010.8
20260506150502 59 338 8.0 13.0 0.00 0.00 0.00 70 1010.8
20260506150401 59 333 6.0 12.0 0.00 0.00 0.00 70 1010.7
20260506150305 59 344 6.0 14.0 0.00 0.00 0.00 69 1010.8
20260506150202 59 333 7.0 16.0 0.00 0.00 0.00 69 1010.8
20260506150000 58 292 6.0 16.0 0.00 0.00 0.00 69 1010.8
20260506145901 58 353 6.0 16.0 0.00 0.00 0.00 68 1010.9
20260506145759 58 357 6.0 17.0 0.00 0.00 0.00 68 1010.8
20260506145700 58 321 6.0 17.0 0.00 0.00 0.00 68 1010.8
20260506145559 58 282 8.0 17.0 0.00 0.00 0.00 68 1010.9
20260506145459 58 344 9.0 17.0 0.00 0.00 0.00 67 1010.8
20260506145358 58 353 10.0 17.0 0.00 0.00 0.00 68 1010.8
20260506145258 58 358 8.0 17.0 0.00 0.00 0.00 69 1010.9
20260506145158 58 355 7.0 17.0 0.00 0.00 0.00 68 1010.7
20260506145054 58 336 9.0 17.0 0.00 0.00 0.00 67 1010.8
20260506144954 58 324 11.0 17.0 0.00 0.00 0.00 67 1010.8
20260506144853 58 324 11.0 17.0 0.00 0.00 0.00 67 1010.8
20260506144754 58 326 9.0 15.0 0.00 0.00 0.00 68 1010.8
20260506144653 58 347 7.0 15.0 0.00 0.00 0.00 68 1010.8
20260506144554 58 319 7.0 16.0 0.00 0.00 0.00 68 1010.8
20260506144454 58 350 9.0 16.0 0.00 0.00 0.00 68 1010.8
20260506144353 58 313 9.0 16.0 0.00 0.00 0.00 68 1010.9
20260506144254 58 338 9.0 16.0 0.00 0.00 0.00 70 1010.8
20260506144151 58 343 8.0 16.0 0.00 0.00 0.00 71 1010.8
20260506144052 58 350 8.0 16.0 0.00 0.00 0.00 70 1010.8
20260506143950 58 288 9.0 16.0 0.00 0.00 0.00 69 1010.8
20260506143850 58 327 9.0 18.0 0.00 0.00 0.00 68 1010.8
20260506143750 59 358 10.0 18.0 0.00 0.00 0.00 68 1010.9
20260506143650 59 347 9.0 18.0 0.00 0.00 0.00 69 1010.8
20260506143550 58 333 8.0 18.0 0.00 0.00 0.00 69 1010.9
20260506143449 58 350 9.0 18.0 0.00 0.00 0.00 70 1010.8
20260506143348 59 340 10.0 18.0 0.00 0.00 0.00 69 1010.8
20260506143248 58 340 7.0 18.0 0.00 0.00 0.00 69 1010.8
20260506143148 58 0 9.0 18.0 0.00 0.00 0.00 68 1010.8
20260506143048 58 289 11.0 18.0 0.00 0.00 0.00 68 1010.8
20260506142947 59 336 10.0 18.0 0.00 0.00 0.00 69 1010.7
20260506142847 58 345 8.0 15.0 0.00 0.00 0.00 70 1010.8
20260506142746 58 1 8.0 15.0 0.00 0.00 0.00 70 1010.8
20260506142643 58 330 10.0 15.0 0.00 0.00 0.00 70 1010.8
20260506142545 58 334 9.0 15.0 0.00 0.00 0.00 70 1010.7
20260506142442 58 317 6.0 15.0 0.00 0.00 0.00 71 1010.7
20260506142341 58 347 6.0 15.0 0.00 0.00 0.00 70 1010.8
20260506142240 58 0 8.0 15.0 0.00 0.00 0.00 70 1010.7
20260506142138 59 0 10.0 15.0 0.00 0.00 0.00 70 1010.8
20260506142037 59 355 9.0 15.0 0.00 0.00 0.00 70 1010.7
20260506141938 59 0 8.0 15.0 0.00 0.00 0.00 71 1010.7
20260506141837 59 331 8.0 14.0 0.00 0.00 0.00 70 1010.7
20260506141737 59 341 9.0 14.0 0.00 0.00 0.00 70 1010.8
20260506141637 59 345 8.0 14.0 0.00 0.00 0.00 70 1010.7
20260506141539 59 358 8.0 14.0 0.00 0.00 0.00 70 1010.8
20260506141439 59 344 7.0 14.0 0.00 0.00 0.00 70 1010.7
20260506141336 59 341 8.0 14.0 0.00 0.00 0.00 70 1010.7
20260506141236 59 18 10.0 14.0 0.00 0.00 0.00 71 1010.7
20260506141136 59 337 9.0 14.0 0.00 0.00 0.00 72 1010.8
20260506141035 59 0 7.0 14.0 0.00 0.00 0.00 72 1010.8
20260506140935 59 350 7.0 14.0 0.00 0.00 0.00 73 1010.8
20260506140831 59 310 8.0 14.0 0.00 0.00 0.00 73 1010.8
20260506140730 59 278 7.0 19.0 0.00 0.00 0.00 71 1010.8
20260506140627 59 293 7.0 19.0 0.00 0.00 0.00 71 1010.8
20260506140528 59 319 8.0 19.0 0.00 0.00 0.00 70 1010.9
20260506140426 59 330 9.0 19.0 0.00 0.00 0.00 71 1010.8
20260506140326 59 324 8.0 19.0 0.00 0.00 0.00 72 1010.8
20260506140226 59 324 7.0 19.0 0.00 0.00 0.00 72 1010.8
20260506140127 59 323 7.0 19.0 0.00 0.00 0.00 72 1010.8
20260506140025 59 314 8.0 19.0 0.00 0.00 0.00 72 1010.9
20260506135924 59 357 11.0 19.0 0.00 0.00 0.00 71 1010.9
20260506135824 59 329 11.0 19.0 0.00 0.00 0.00 72 1010.9
20260506135724 59 343 8.0 14.0 0.00 0.00 0.00 74 1010.9
20260506135624 59 320 7.0 14.0 0.00 0.00 0.00 75 1010.9
20260506135524 59 329 8.0 16.0 0.00 0.00 0.00 75 1010.9
20260506135423 59 314 6.0 16.0 0.00 0.00 0.00 75 1010.9
20260506135322 58 0 7.0 16.0 0.00 0.00 0.00 74 1010.9
20260506135222 58 320 7.0 16.0 0.00 0.00 0.00 75 1010.8
20260506135122 58 0 5.0 16.0 0.00 0.00 0.00 75 1010.9
20260506135021 58 321 7.0 16.0 0.00 0.00 0.00 76 1010.9
20260506134921 58 313 9.0 16.0 0.00 0.00 0.00 75 1010.9
20260506134820 58 293 9.0 16.0 0.00 0.00 0.00 76 1010.9
20260506134720 58 302 8.0 16.0 0.00 0.00 0.00 75 1010.8
20260506134622 58 286 9.0 16.0 0.00 0.00 0.00 75 1010.9
20260506134519 58 333 7.0 16.0 0.00 0.00 0.00 75 1010.8
20260506134417 58 290 6.0 16.0 0.00 0.00 0.00 72 1010.8
20260506134314 58 350 7.0 16.0 0.00 0.00 0.00 72 1010.9
20260506134213 58 355 9.0 16.0 0.00 0.00 0.00 73 1010.9
20260506134112 59 343 10.0 16.0 0.00 0.00 0.00 74 1010.9
20260506134009 59 4 10.0 16.0 0.00 0.00 0.00 75 1010.9
20260506133910 59 275 8.0 15.0 0.00 0.00 0.00 76 1010.8
20260506133810 59 314 7.0 12.0 0.00 0.00 0.00 76 1010.8
20260506133704 59 338 7.0 12.0 0.00 0.00 0.00 75 1010.9
20260506133604 59 285 8.0 13.0 0.00 0.00 0.00 75 1010.9
20260506133506 59 285 7.0 13.0 0.00 0.00 0.00 75 1010.9
20260506133403 59 296 6.0 13.0 0.00 0.00 0.00 76 1010.9
20260506133304 59 341 7.0 13.0 0.00 0.00 0.00 77 1010.9
20260506133201 59 334 8.0 13.0 0.00 0.00 0.00 75 1010.9
20260506133101 59 296 8.0 13.0 0.00 0.00 0.00 76 1010.9
20260506133001 59 348 7.0 13.0 0.00 0.00 0.00 76 1010.9
20260506132901 59 286 7.0 13.0 0.00 0.00 0.00 76 1010.9
20260506132802 59 306 9.0 13.0 0.00 0.00 0.00 76 1011.0
20260506132702 59 330 9.0 13.0 0.00 0.00 0.00 75 1010.9
20260506132601 59 293 7.0 16.0 0.00 0.00 0.00 75 1010.9
20260506132504 59 340 7.0 16.0 0.00 0.00 0.00 75 1011.0
20260506132401 59 354 6.0 16.0 0.00 0.00 0.00 75 1010.9
20260506132301 59 286 7.0 16.0 0.00 0.00 0.00 75 1010.9
20260506132202 58 307 7.0 16.0 0.00 0.00 0.00 75 1010.8
20260506132103 58 344 6.0 16.0 0.00 0.00 0.00 75 1010.9
20260506132003 58 319 6.0 16.0 0.00 0.00 0.00 74 1010.8
20260506131903 58 338 8.0 16.0 0.00 0.00 0.00 72 1010.9
20260506131801 58 333 9.0 16.0 0.00 0.00 0.00 72 1010.9
20260506131701 58 327 8.0 16.0 0.00 0.00 0.00 72 1010.8
20260506131601 58 3 8.0 15.0 0.00 0.00 0.00 72 1010.9
20260506131458 58 357 8.0 15.0 0.00 0.00 0.00 73 1010.9
20260506131357 58 340 9.0 15.0 0.00 0.00 0.00 72 1010.9
20260506131258 58 0 11.0 15.0 0.00 0.00 0.00 72 1010.9
20260506131200 58 337 8.0 15.0 0.00 0.00 0.00 74 1010.8
20260506131059 58 321 7.0 15.0 0.00 0.00 0.00 74 1010.7
20260506130957 58 330 9.0 15.0 0.00 0.00 0.00 73 1010.7
20260506130855 58 330 10.0 15.0 0.00 0.00 0.00 72 1010.8
20260506130756 58 341 10.0 15.0 0.00 0.00 0.00 72 1010.8
20260506130654 58 337 10.0 15.0 0.00 0.00 0.00 72 1010.8
20260506130552 58 336 9.0 15.0 0.00 0.00 0.00 72 1010.9
20260506130446 58 358 9.0 15.0 0.00 0.00 0.00 72 1010.7
20260506130344 58 337 9.0 15.0 0.00 0.00 0.00 73 1010.7
20260506130244 58 7 9.0 15.0 0.00 0.00 0.00 74 1010.7
20260506130143 58 351 7.0 16.0 0.00 0.00 0.00 74 1010.7
20260506130042 58 323 8.0 16.0 0.00 0.00 0.00 73 1010.7
20260506125942 58 348 8.0 16.0 0.00 0.00 0.00 74 1010.7
20260506125842 57 324 8.0 16.0 0.00 0.00 0.00 74 1010.7
20260506125746 57 345 8.0 16.0 0.00 0.00 0.00 74 1010.7
20260506125640 57 334 9.0 16.0 0.00 0.00 0.00 74 1010.7
20260506125540 57 344 8.0 16.0 0.00 0.00 0.00 73 1010.7
20260506125440 57 323 9.0 16.0 0.00 0.00 0.00 74 1010.6
20260506125237 58 8 9.0 16.0 0.00 0.00 0.00 75 1010.6
20260506125137 58 0 7.0 16.0 0.00 0.00 0.00 74 1010.6
20260506125038 58 336 9.0 16.0 0.00 0.00 0.00 73 1010.5
20260506124934 58 347 10.0 16.0 0.00 0.00 0.00 72 1010.7
20260506124836 59 348 9.0 14.0 0.00 0.00 0.00 73 1010.6
20260506124737 59 323 7.0 14.0 0.00 0.00 0.00 74 1010.6
20260506124637 59 354 9.0 14.0 0.00 0.00 0.00 74 1010.6
20260506124536 58 347 8.0 15.0 0.00 0.00 0.00 74 1010.5
20260506124434 58 351 7.0 15.0 0.00 0.00 0.00 75 1010.5
20260506124333 58 338 8.0 17.0 0.00 0.00 0.00 74 1010.6
20260506124233 58 347 8.0 17.0 0.00 0.00 0.00 73 1010.7
20260506124133 58 354 8.0 17.0 0.00 0.00 0.00 74 1010.7
20260506124033 58 320 7.0 17.0 0.00 0.00 0.00 74 1010.6
20260506123934 58 0 7.0 17.0 0.00 0.00 0.00 74 1010.6
20260506123834 58 334 8.0 17.0 0.00 0.00 0.00 74 1010.6
20260506123733 58 341 10.0 18.0 0.00 0.00 0.00 75 1010.5
20260506123633 58 327 9.0 18.0 0.00 0.00 0.00 74 1010.5
20260506123533 58 0 9.0 18.0 0.00 0.00 0.00 74 1010.7
20260506123433 58 344 10.0 18.0 0.00 0.00 0.00 74 1010.7
20260506123333 58 0 10.0 18.0 0.00 0.00 0.00 74 1010.6
20260506123234 58 337 10.0 18.0 0.00 0.00 0.00 73 1010.6
20260506123134 58 343 11.0 18.0 0.00 0.00 0.00 73 1010.6
20260506123033 58 0 10.0 18.0 0.00 0.00 0.00 73 1010.6
20260506122933 58 351 11.0 18.0 0.00 0.00 0.00 72 1010.6
20260506122834 58 348 11.0 18.0 0.00 0.00 0.00 72 1010.6
20260506122736 58 290 9.0 15.0 0.00 0.00 0.00 72 1010.6
20260506122636 59 343 9.0 15.0 0.00 0.00 0.00 73 1010.6
20260506122536 59 307 10.0 15.0 0.00 0.00 0.00 72 1010.6
20260506122434 59 323 9.0 15.0 0.00 0.00 0.00 73 1010.7
20260506122333 59 338 9.0 15.0 0.00 0.00 0.00 73 1010.7
20260506122233 59 348 10.0 15.0 0.00 0.00 0.00 72 1010.7
20260506122134 59 303 9.0 15.0 0.00 0.00 0.00 74 1010.7
20260506122034 59 334 7.0 15.0 0.00 0.00 0.00 74 1010.7
20260506121933 58 323 7.0 15.0 0.00 0.00 0.00 74 1010.6
20260506121833 58 323 9.0 19.0 0.00 0.00 0.00 73 1010.6
20260506121733 58 355 10.0 19.0 0.00 0.00 0.00 72 1010.7
20260506121633 58 353 10.0 19.0 0.00 0.00 0.00 73 1010.6
20260506121533 58 338 8.0 19.0 0.00 0.00 0.00 74 1010.6
20260506121433 58 334 6.0 19.0 0.00 0.00 0.00 74 1010.7
20260506121335 58 333 8.0 19.0 0.00 0.00 0.00 74 1010.7
20260506121237 58 341 9.0 19.0 0.00 0.00 0.00 75 1010.6
20260506121136 58 321 9.0 19.0 0.00 0.00 0.00 75 1010.6
20260506121037 57 348 10.0 19.0 0.00 0.00 0.00 74 1010.7
20260506120934 57 357 12.0 19.0 0.00 0.00 0.00 73 1010.6
20260506120834 57 345 9.0 19.0 0.00 0.00 0.00 74 1010.6
20260506120734 57 347 11.0 19.0 0.00 0.00 0.00 72 1010.7
20260506120633 58 0 13.0 19.0 0.00 0.00 0.00 73 1010.7
20260506120534 58 323 11.0 17.0 0.00 0.00 0.00 73 1010.6
20260506120432 58 353 11.0 17.0 0.00 0.00 0.00 73 1010.7
20260506120333 58 336 10.0 17.0 0.00 0.00 0.00 73 1010.7
20260506120233 58 0 10.0 17.0 0.00 0.00 0.00 71 1010.5
20260506120133 58 340 11.0 17.0 0.00 0.00 0.00 71 1010.6
20260506120033 58 336 10.0 17.0 0.00 0.00 0.00 72 1010.6
20260506115934 58 334 8.0 17.0 0.00 0.00 0.00 74 1010.6
20260506115833 58 348 8.0 17.0 0.00 0.00 0.00 74 1010.5
20260506115733 58 333 10.0 17.0 0.00 0.00 0.00 74 1010.5
20260506115633 58 337 10.0 17.0 0.00 0.00 0.00 73 1010.5
20260506115534 58 338 10.0 17.0 0.00 0.00 0.00 72 1010.5
20260506115433 58 292 10.0 17.0 0.00 0.00 0.00 72 1010.6
20260506115348 58 0 10.0 15.0 0.00 0.00 0.00 72 1010.5
20260506115233 58 0 9.0 15.0 0.00 0.00 0.00 72 1010.5
20260506115133 58 305 9.0 15.0 0.00 0.00 0.00 72 1010.5
20260506115034 58 329 9.0 15.0 0.00 0.00 0.00 73 1010.5
20260506114934 58 341 10.0 15.0 0.00 0.00 0.00 73 1010.6
20260506114833 58 324 9.0 15.0 0.00 0.00 0.00 74 1010.5
20260506114734 58 292 9.0 15.0 0.00 0.00 0.00 74 1010.5
20260506114633 58 0 9.0 15.0 0.00 0.00 0.00 73 1010.6
20260506114533 58 350 9.0 15.0 0.00 0.00 0.00 74 1010.6
20260506114433 58 343 7.0 13.0 0.00 0.00 0.00 75 1010.4
20260506114333 58 347 7.0 13.0 0.00 0.00 0.00 74 1010.5
20260506114233 58 351 8.0 13.0 0.00 0.00 0.00 75 1010.5
20260506114134 58 286 8.0 13.0 0.00 0.00 0.00 75 1010.5
20260506114033 58 338 8.0 13.0 0.00 0.00 0.00 75 1010.5
20260506113935 57 355 8.0 13.0 0.00 0.00 0.00 75 1010.5
20260506113835 57 338 7.0 13.0 0.00 0.00 0.00 74 1010.5
20260506113733 57 336 8.0 13.0 0.00 0.00 0.00 74 1010.5
20260506113634 57 357 9.0 14.0 0.00 0.00 0.00 74 1010.6
20260506113534 57 338 8.0 14.0 0.00 0.00 0.00 74 1010.5
20260506113433 57 0 8.0 14.0 0.00 0.00 0.00 74 1010.5
20260506113335 57 323 8.0 16.0 0.00 0.00 0.00 74 1010.5
20260506113233 57 0 7.0 16.0 0.00 0.00 0.00 75 1010.6
20260506113132 57 337 7.0 16.0 0.00 0.00 0.00 75 1010.6
20260506113034 57 303 9.0 16.0 0.00 0.00 0.00 74 1010.5
20260506112932 57 348 9.0 16.0 0.00 0.00 0.00 75 1010.5
20260506112834 57 338 10.0 16.0 0.00 0.00 0.00 75 1010.5
20260506112734 57 0 10.0 16.0 0.00 0.00 0.00 75 1010.5
20260506112633 57 340 9.0 16.0 0.00 0.00 0.00 75 1010.4
20260506112532 57 333 9.0 16.0 0.00 0.00 0.00 75 1010.5
20260506112434 57 320 9.0 16.0 0.00 0.00 0.00 75 1010.5
20260506112333 57 358 8.0 14.0 0.00 0.00 0.00 75 1010.6
20260506112232 57 4 8.0 14.0 0.00 0.00 0.00 75 1010.6
20260506112134 57 0 8.0 14.0 0.00 0.00 0.00 75 1010.5
20260506112033 57 0 8.0 15.0 0.00 0.00 0.00 75 1010.4
20260506111934 57 334 7.0 15.0 0.00 0.00 0.00 74 1010.5
20260506111833 57 306 7.0 15.0 0.00 0.00 0.00 75 1010.4
20260506111733 57 314 9.0 15.0 0.00 0.00 0.00 75 1010.4
20260506111633 57 345 9.0 15.0 0.00 0.00 0.00 75 1010.5
20260506111533 57 330 7.0 15.0 0.00 0.00 0.00 75 1010.5
20260506111432 57 345 6.0 15.0 0.00 0.00 0.00 76 1010.4
20260506111333 57 312 8.0 15.0 0.00 0.00 0.00 75 1010.4
20260506111234 57 321 9.0 15.0 0.00 0.00 0.00 75 1010.4
20260506111134 57 331 10.0 15.0 0.00 0.00 0.00 75 1010.5
20260506111036 57 355 10.0 14.0 0.00 0.00 0.00 75 1010.5
20260506110934 57 327 11.0 14.0 0.00 0.00 0.00 75 1010.5
20260506110834 57 354 9.0 14.0 0.00 0.00 0.00 75 1010.5
20260506110735 57 309 9.0 14.0 0.00 0.00 0.00 75 1010.4
20260506110633 57 338 9.0 14.0 0.00 0.00 0.00 75 1010.5
20260506110536 57 334 9.0 14.0 0.00 0.00 0.00 75 1010.4
20260506110434 57 327 9.0 14.0 0.00 0.00 0.00 76 1010.5
20260506110333 57 341 8.0 14.0 0.00 0.00 0.00 76 1010.5
20260506110234 57 351 6.0 14.0 0.00 0.00 0.00 76 1010.6
20260506110134 57 348 5.0 14.0 0.00 0.00 0.00 76 1010.5
20260506110033 57 323 8.0 14.0 0.00 0.00 0.00 75 1010.6
20260506105933 57 358 9.0 14.0 0.00 0.00 0.00 75 1010.5
20260506105833 57 338 7.0 13.0 0.00 0.00 0.00 76 1010.5
20260506105733 57 333 7.0 13.0 0.00 0.00 0.00 76 1010.6
20260506105633 57 355 7.0 13.0 0.00 0.00 0.00 77 1010.6
20260506105536 57 345 6.0 13.0 0.00 0.00 0.00 77 1010.6
20260506105434 56 323 8.0 13.0 0.00 0.00 0.00 76 1010.5
20260506105333 57 310 8.0 13.0 0.00 0.00 0.00 77 1010.5
20260506105234 57 317 8.0 13.0 0.00 0.00 0.00 77 1010.5
20260506105137 56 264 8.0 13.0 0.00 0.00 0.00 76 1010.5
20260506105034 57 323 8.0 12.0 0.00 0.00 0.00 76 1010.6
20260506104935 57 298 8.0 12.0 0.00 0.00 0.00 76 1010.6
20260506104833 56 326 7.0 12.0 0.00 0.00 0.00 76 1010.5
20260506104734 56 326 6.0 12.0 0.00 0.00 0.00 77 1010.5
20260506104632 56 330 8.0 16.0 0.00 0.00 0.00 76 1010.5
20260506104535 56 307 7.0 16.0 0.00 0.00 0.00 76 1010.5
20260506104433 56 324 6.0 16.0 0.00 0.00 0.00 76 1010.5
20260506104333 56 0 6.0 16.0 0.00 0.00 0.00 77 1010.5
20260506104233 56 319 7.0 16.0 0.00 0.00 0.00 76 1010.5
20260506104133 56 347 7.0 16.0 0.00 0.00 0.00 76 1010.5
20260506104033 56 344 8.0 16.0 0.00 0.00 0.00 77 1010.6
20260506103934 56 344 9.0 16.0 0.00 0.00 0.00 77 1010.6
20260506103833 56 312 10.0 16.0 0.00 0.00 0.00 76 1010.5
20260506103733 56 0 10.0 16.0 0.00 0.00 0.00 76 1010.6
20260506103636 56 348 8.0 16.0 0.00 0.00 0.00 76 1010.6
20260506103536 56 350 9.0 16.0 0.00 0.00 0.00 75 1010.5
20260506103435 56 7 9.0 16.0 0.00 0.00 0.00 77 1010.5
20260506103233 56 354 8.0 14.0 0.00 0.00 0.00 76 1010.5
20260506103133 56 333 7.0 14.0 0.00 0.00 0.00 76 1010.4
20260506103033 56 293 7.0 14.0 0.00 0.00 0.00 76 1010.5
20260506102936 56 21 8.0 14.0 0.00 0.00 0.00 76 1010.5
20260506102836 56 343 8.0 14.0 0.00 0.00 0.00 77 1010.4
20260506102733 56 323 7.0 14.0 0.00 0.00 0.00 76 1010.4
20260506102632 56 333 8.0 17.0 0.00 0.00 0.00 76 1010.4
20260506102534 56 282 9.0 17.0 0.00 0.00 0.00 76 1010.4
20260506102433 56 343 9.0 17.0 0.00 0.00 0.00 75 1010.4
20260506102333 56 330 8.0 17.0 0.00 0.00 0.00 75 1010.5
20260506102243 56 333 9.0 17.0 0.00 0.00 0.00 76 1010.4
20260506102134 56 281 9.0 17.0 0.00 0.00 0.00 75 1010.4
20260506102034 56 313 8.0 17.0 0.00 0.00 0.00 76 1010.4
20260506101935 56 357 8.0 17.0 0.00 0.00 0.00 75 1010.4
20260506101834 56 8 9.0 17.0 0.00 0.00 0.00 75 1010.4
20260506101733 56 330 9.0 17.0 0.00 0.00 0.00 75 1010.4
20260506101633 56 336 8.0 15.0 0.00 0.00 0.00 75 1010.5
20260506101534 56 316 8.0 15.0 0.00 0.00 0.00 75 1010.5
20260506101433 56 25 9.0 15.0 0.00 0.00 0.00 74 1010.4
20260506101333 56 343 9.0 14.0 0.00 0.00 0.00 74 1010.5
20260506101232 57 355 8.0 14.0 0.00 0.00 0.00 74 1010.4
20260506101133 57 334 7.0 14.0 0.00 0.00 0.00 75 1010.4
20260506101033 57 355 6.0 14.0 0.00 0.00 0.00 75 1010.4
20260506100934 57 312 8.0 14.0 0.00 0.00 0.00 75 1010.3
20260506100835 57 4 9.0 15.0 0.00 0.00 0.00 76 1010.3
20260506100734 57 336 9.0 15.0 0.00 0.00 0.00 76 1010.2
20260506100633 56 343 8.0 15.0 0.00 0.00 0.00 76 1010.3
20260506100432 56 344 6.0 15.0 0.00 0.00 0.00 76 1010.3
20260506100333 56 0 7.0 15.0 0.00 0.00 0.00 76 1010.3
20260506100233 56 340 7.0 15.0 0.00 0.00 0.00 77 1010.4
20260506100136 56 343 8.0 18.0 0.00 0.00 0.00 77 1010.3
20260506100034 56 324 8.0 18.0 0.00 0.00 0.00 77 1010.3
20260506095935 56 6 7.0 18.0 0.00 0.00 0.00 77 1010.4
20260506095832 56 319 8.0 18.0 0.00 0.00 0.00 77 1010.3
20260506095733 56 0 9.0 18.0 0.00 0.00 0.00 77 1010.3
20260506095633 55 0 9.0 18.0 0.00 0.00 0.00 77 1010.2
20260506095533 55 341 8.0 18.0 0.00 0.00 0.00 77 1010.3
20260506095432 55 341 10.0 18.0 0.00 0.00 0.00 76 1010.3
20260506095333 56 353 12.0 18.0 0.00 0.00 0.00 76 1010.3
20260506095234 56 331 13.0 18.0 0.00 0.00 0.00 76 1010.4
20260506095134 56 317 11.0 16.0 0.00 0.00 0.00 76 1010.4
20260506095032 56 357 10.0 15.0 0.00 0.00 0.00 76 1010.3
20260506094933 56 353 9.0 15.0 0.00 0.00 0.00 76 1010.4
20260506094833 56 350 10.0 15.0 0.00 0.00 0.00 76 1010.4
20260506094733 56 330 10.0 15.0 0.00 0.00 0.00 77 1010.3
20260506094632 57 330 8.0 14.0 0.00 0.00 0.00 78 1010.2
20260506094534 56 0 6.0 16.0 0.00 0.00 0.00 78 1010.4
20260506094432 56 10 6.0 16.0 0.00 0.00 0.00 78 1010.3
20260506094333 56 326 6.0 16.0 0.00 0.00 0.00 79 1010.4
20260506094233 56 348 7.0 16.0 0.00 0.00 0.00 78 1010.3
20260506094133 56 357 9.0 16.0 0.00 0.00 0.00 78 1010.3
20260506094034 56 288 9.0 16.0 0.00 0.00 0.00 78 1010.3
20260506093934 55 326 9.0 16.0 0.00 0.00 0.00 79 1010.3
20260506093835 55 334 9.0 16.0 0.00 0.00 0.00 78 1010.3
20260506093735 55 337 10.0 16.0 0.00 0.00 0.00 78 1010.4
20260506093633 55 340 12.0 16.0 0.00 0.00 0.00 78 1010.4
20260506093533 55 330 10.0 16.0 0.00 0.00 0.00 79 1010.4
20260506093433 55 0 11.0 18.0 0.00 0.00 0.00 79 1010.4
20260506093333 55 0 11.0 18.0 0.00 0.00 0.00 79 1010.4
20260506093234 55 344 9.0 18.0 0.00 0.00 0.00 79 1010.3
20260506093133 55 323 11.0 18.0 0.00 0.00 0.00 79 1010.4
20260506093034 55 348 11.0 18.0 0.00 0.00 0.00 79 1010.4
20260506092932 55 323 11.0 18.0 0.00 0.00 0.00 79 1010.4
20260506092833 55 336 11.0 18.0 0.00 0.00 0.00 78 1010.4
20260506092734 55 343 10.0 18.0 0.00 0.00 0.00 78 1010.4
20260506092633 55 333 11.0 18.0 0.00 0.00 0.00 78 1010.3
20260506092534 55 324 12.0 18.0 0.00 0.00 0.00 80 1010.4
20260506092434 55 326 10.0 14.0 0.00 0.00 0.00 81 1010.4
20260506092333 55 347 7.0 17.0 0.00 0.00 0.00 80 1010.4
20260506092233 55 334 6.0 17.0 0.00 0.00 0.00 81 1010.4
20260506092133 55 0 7.0 17.0 0.00 0.00 0.00 81 1010.4
20260506092033 54 338 7.0 17.0 0.00 0.00 0.00 81 1010.4
20260506091936 54 345 7.0 17.0 0.00 0.00 0.00 81 1010.4
20260506091835 54 348 9.0 17.0 0.00 0.00 0.00 80 1010.3
20260506091735 54 338 10.0 17.0 0.00 0.00 0.00 80 1010.3
20260506091634 54 338 10.0 17.0 0.00 0.00 0.00 81 1010.4
20260506091600 54 0 10.0 17.0 0.00 0.00 0.00 80 1010.4
20260506091444 54 354 9.0 17.0 0.00 0.00 0.00 81 1010.4
20260506091333 54 347 8.0 14.0 0.00 0.00 0.00 81 1010.3
20260506091233 54 330 8.0 14.0 0.00 0.00 0.00 81 1010.3
20260506091134 54 37 7.0 14.0 0.00 0.00 0.00 81 1010.2
20260506091033 54 0 9.0 14.0 0.00 0.00 0.00 81 1010.3
20260506090933 54 341 9.0 14.0 0.00 0.00 0.00 82 1010.3
20260506090833 54 347 8.0 14.0 0.00 0.00 0.00 82 1010.3
20260506090733 54 324 9.0 14.0 0.00 0.00 0.00 81 1010.3
20260506090633 53 331 9.0 14.0 0.00 0.00 0.00 81 1010.2
20260506090533 54 337 10.0 14.0 0.00 0.00 0.00 81 1010.3
20260506090433 54 344 9.0 14.0 0.00 0.00 0.00 81 1010.3
20260506090333 54 348 9.0 14.0 0.00 0.00 0.00 81 1010.2
20260506090234 54 338 9.0 14.0 0.00 0.00 0.00 82 1010.3
20260506090134 54 354 7.0 14.0 0.00 0.00 0.00 81 1010.3
20260506090033 54 338 7.0 14.0 0.00 0.00 0.00 81 1010.3
20260506085933 54 355 9.0 14.0 0.00 0.00 0.00 81 1010.3
20260506085833 54 0 8.0 14.0 0.00 0.00 0.00 81 1010.3
20260506085735 54 312 7.0 12.0 0.00 0.00 0.00 81 1010.3
20260506085635 54 344 8.0 12.0 0.00 0.00 0.00 81 1010.3
20260506085534 54 341 9.0 12.0 0.00 0.00 0.00 81 1010.3
20260506085435 54 334 8.0 12.0 0.00 0.00 0.00 81 1010.2
20260506085333 54 347 7.0 13.0 0.00 0.00 0.00 81 1010.2
20260506085234 54 292 7.0 13.0 0.00 0.00 0.00 81 1010.2
20260506085133 54 331 7.0 13.0 0.00 0.00 0.00 82 1010.2
20260506085033 54 0 8.0 13.0 0.00 0.00 0.00 82 1010.2
20260506084935 54 0 8.0 13.0 0.00 0.00 0.00 82 1010.3
20260506084833 54 321 7.0 13.0 0.00 0.00 0.00 82 1010.3
20260506084733 54 350 6.0 13.0 0.00 0.00 0.00 82 1010.1
20260506084632 54 0 6.0 13.0 0.00 0.00 0.00 81 1010.2
20260506084533 54 340 9.0 13.0 0.00 0.00 0.00 81 1010.1
20260506084432 54 345 8.0 13.0 0.00 0.00 0.00 82 1010.1
20260506084333 54 321 6.0 14.0 0.00 0.00 0.00 83 1010.1
20260506084233 53 345 6.0 15.0 0.00 0.00 0.00 83 1010.1
20260506084133 53 348 6.0 15.0 0.00 0.00 0.00 83 1010.2
20260506084033 53 0 6.0 15.0 0.00 0.00 0.00 83 1010.1
20260506083933 53 351 7.0 15.0 0.00 0.00 0.00 83 1010.1
20260506083833 53 345 8.0 15.0 0.00 0.00 0.00 82 1010.1
20260506083734 53 0 9.0 15.0 0.00 0.00 0.00 82 1010.1
20260506083635 53 338 9.0 15.0 0.00 0.00 0.00 83 1010.1
20260506083535 53 350 9.0 15.0 0.00 0.00 0.00 83 1010.0
20260506083433 53 331 9.0 15.0 0.00 0.00 0.00 83 1010.1
20260506083333 53 343 8.0 15.0 0.00 0.00 0.00 83 1010.0
20260506083232 53 341 7.0 15.0 0.00 0.00 0.00 83 1010.1
20260506083134 53 0 7.0 15.0 0.00 0.00 0.00 83 1010.1
20260506083036 53 345 8.0 15.0 0.00 0.00 0.00 83 1010.1
20260506082934 53 343 8.0 15.0 0.00 0.00 0.00 83 1010.0
20260506082833 53 353 9.0 15.0 0.00 0.00 0.00 83 1010.0
20260506082732 53 331 10.0 15.0 0.00 0.00 0.00 83 1010.0
20260506082633 53 358 11.0 15.0 0.00 0.00 0.00 83 1010.1
20260506082533 53 341 10.0 15.0 0.00 0.00 0.00 83 1010.0
20260506082433 53 344 8.0 15.0 0.00 0.00 0.00 83 1010.0
20260506082332 53 320 8.0 15.0 0.00 0.00 0.00 83 1009.9
20260506082233 53 350 9.0 15.0 0.00 0.00 0.00 83 1010.0
20260506082134 53 0 10.0 15.0 0.00 0.00 0.00 83 1010.0
20260506082034 52 351 10.0 15.0 0.00 0.00 0.00 83 1010.0
20260506081933 52 321 9.0 15.0 0.00 0.00 0.00 83 1010.0
20260506081833 52 327 8.0 15.0 0.00 0.00 0.00 84 1010.0
20260506081733 52 334 8.0 15.0 0.00 0.00 0.00 84 1009.9
20260506081634 52 348 8.0 15.0 0.00 0.00 0.00 84 1010.0
20260506081537 52 309 6.0 14.0 0.00 0.00 0.00 84 1010.0
20260506081436 52 344 6.0 14.0 0.00 0.00 0.00 84 1010.0
20260506081335 52 338 5.0 14.0 0.00 0.00 0.00 84 1010.0
20260506081234 52 0 5.0 14.0 0.00 0.00 0.00 84 1010.0
20260506081133 52 324 6.0 14.0 0.00 0.00 0.00 84 1010.0
20260506081034 52 1 6.0 14.0 0.00 0.00 0.00 84 1010.0
20260506080933 52 0 7.0 14.0 0.00 0.00 0.00 84 1010.0
20260506080833 52 355 8.0 14.0 0.00 0.00 0.00 84 1010.0
20260506080733 52 334 8.0 14.0 0.00 0.00 0.00 85 1010.0
20260506080633 52 0 6.0 15.0 0.00 0.00 0.00 85 1010.0
20260506080534 52 347 6.0 15.0 0.00 0.00 0.00 85 1010.0
20260506080433 52 353 6.0 15.0 0.00 0.00 0.00 85 1010.0
20260506080333 52 337 7.0 15.0 0.00 0.00 0.00 84 1009.9
20260506080233 52 340 8.0 15.0 0.00 0.00 0.00 84 1010.0
20260506080133 52 358 8.0 15.0 0.00 0.00 0.00 84 1010.0
20260506073430 51 319 7.0 14.0 0.00 0.00 0.00 85 1009.9
20260506073329 51 343 9.0 14.0 0.00 0.00 0.00 85 1009.9
20260506073230 51 351 9.0 14.0 0.00 0.00 0.00 85 1009.9
20260506073129 51 331 9.0 13.0 0.00 0.00 0.00 85 1009.9
20260506073026 51 351 9.0 14.0 0.00 0.00 0.00 84 1009.9
20260506072925 51 336 10.0 14.0 0.00 0.00 0.00 84 1009.8
20260506072824 51 350 9.0 14.0 0.00 0.00 0.00 85 1009.8
20260506072723 51 0 8.0 14.0 0.00 0.00 0.00 84 1009.9
20260506072622 51 320 9.0 14.0 0.00 0.00 0.00 84 1009.8
20260506072522 51 324 9.0 14.0 0.00 0.00 0.00 84 1009.8
20260506072418 51 357 7.0 14.0 0.00 0.00 0.00 84 1009.9
20260506072318 51 338 8.0 14.0 0.00 0.00 0.00 84 1009.8
20260506072217 51 350 9.0 14.0 0.00 0.00 0.00 84 1009.8
20260506072118 51 327 9.0 14.0 0.00 0.00 0.00 84 1009.9
20260506072018 51 320 8.0 14.0 0.00 0.00 0.00 84 1009.9
20260506071917 51 7 8.0 14.0 0.00 0.00 0.00 84 1009.8
20260506071817 51 0 9.0 14.0 0.00 0.00 0.00 84 1009.9
20260506071716 51 341 9.0 14.0 0.00 0.00 0.00 84 1009.9
20260506071616 51 329 9.0 14.0 0.00 0.00 0.00 84 1009.8
20260506071514 51 321 9.0 14.0 0.00 0.00 0.00 84 1009.8
20260506071414 51 333 9.0 14.0 0.00 0.00 0.00 83 1009.8
20260506071315 51 327 8.0 14.0 0.00 0.00 0.00 83 1009.8
20260506071213 51 324 9.0 15.0 0.00 0.00 0.00 83 1009.8
20260506071114 51 348 9.0 15.0 0.00 0.00 0.00 83 1009.8
20260506071012 51 326 9.0 15.0 0.00 0.00 0.00 83 1009.8
20260506070913 51 334 8.0 15.0 0.00 0.00 0.00 83 1009.8
20260506070812 51 326 8.0 15.0 0.00 0.00 0.00 83 1009.8
20260506070714 51 309 8.0 15.0 0.00 0.00 0.00 83 1009.8
20260506070615 51 309 9.0 15.0 0.00 0.00 0.00 83 1009.7
20260506070514 51 337 9.0 15.0 0.00 0.00 0.00 83 1009.9
20260506070413 51 341 9.0 15.0 0.00 0.00 0.00 83 1009.8
20260506070311 51 355 9.0 15.0 0.00 0.00 0.00 83 1009.9
20260506070209 51 312 6.0 12.0 0.00 0.00 0.00 83 1009.8
20260506070108 51 350 7.0 12.0 0.00 0.00 0.00 83 1009.8
20260506062500 51 340 10.0 16.0 0.00 0.00 0.00 84 1009.7
20260506062355 51 351 9.0 16.0 0.00 0.00 0.00 84 1009.7
20260506062256 51 0 7.0 15.0 0.00 0.00 0.00 85 1009.6
20260506062154 51 353 7.0 12.0 0.00 0.00 0.00 85 1009.6
20260506062055 51 313 7.0 12.0 0.00 0.00 0.00 85 1009.6
20260506061954 51 337 8.0 12.0 0.00 0.00 0.00 85 1009.6
20260506061855 51 341 8.0 11.0 0.00 0.00 0.00 85 1009.6
20260506061754 51 337 7.0 13.0 0.00 0.00 0.00 85 1009.6
20260506061653 51 330 7.0 13.0 0.00 0.00 0.00 85 1009.6
20260506061550 51 336 6.0 14.0 0.00 0.00 0.00 85 1009.6
20260506061449 51 347 6.0 14.0 0.00 0.00 0.00 85 1009.6
20260506061350 51 344 6.0 14.0 0.00 0.00 0.00 84 1009.6
20260506061248 51 317 5.0 14.0 0.00 0.00 0.00 84 1009.6
20260506061148 51 337 6.0 14.0 0.00 0.00 0.00 84 1009.6
20260506061047 51 340 7.0 14.0 0.00 0.00 0.00 84 1009.6
20260506060947 51 344 8.0 14.0 0.00 0.00 0.00 84 1009.6
20260506060848 51 334 9.0 14.0 0.00 0.00 0.00 84 1009.6
20260506060744 51 330 10.0 14.0 0.00 0.00 0.00 84 1009.6
20260506060645 51 345 11.0 14.0 0.00 0.00 0.00 84 1009.6
20260506060544 51 337 10.0 14.0 0.00 0.00 0.00 84 1009.6
20260506060441 51 338 8.0 14.0 0.00 0.00 0.00 85 1009.5
20260506060340 51 343 7.0 14.0 0.00 0.00 0.00 85 1009.5
20260506060138 51 347 8.0 16.0 0.00 0.00 0.00 85 1009.6
20260506051319 51 351 7.0 15.0 0.00 0.00 0.00 85 1009.5
20260506051217 51 351 7.0 15.0 0.00 0.00 0.00 85 1009.5
20260506051116 51 344 6.0 15.0 0.00 0.00 0.00 85 1009.5
20260506051015 51 351 6.0 15.0 0.00 0.00 0.00 85 1009.5
20260506050915 51 326 6.0 15.0 0.00 0.00 0.00 85 1009.4
20260506050813 51 338 7.0 15.0 0.00 0.00 0.00 85 1009.5
20260506050715 51 357 9.0 15.0 0.00 0.00 0.00 85 1009.5
20260506050614 51 351 10.0 15.0 0.00 0.00 0.00 85 1009.6
20260506050514 51 334 8.0 14.0 0.00 0.00 0.00 85 1009.5
20260506050412 51 330 8.0 15.0 0.00 0.00 0.00 85 1009.4
20260506050313 51 357 9.0 15.0 0.00 0.00 0.00 85 1009.5
20260506050212 51 333 8.0 15.0 0.00 0.00 0.00 85 1009.5
20260506050111 51 0 8.0 15.0 0.00 0.00 0.00 85 1009.5
20260506045105 51 337 7.0 13.0 0.00 0.00 0.00 85 1009.4
20260506045003 51 323 6.0 12.0 0.00 0.00 0.00 85 1009.4
20260506044904 51 357 8.0 12.0 0.00 0.00 0.00 85 1009.4
20260506044803 51 338 8.0 13.0 0.00 0.00 0.00 85 1009.5
20260506044705 51 350 7.0 13.0 0.00 0.00 0.00 85 1009.5
20260506044605 51 357 6.0 13.0 0.00 0.00 0.00 85 1009.5
20260506044504 51 331 6.0 13.0 0.00 0.00 0.00 85 1009.5
20260506044402 51 316 6.0 13.0 0.00 0.00 0.00 85 1009.5
20260506044301 51 330 7.0 13.0 0.00 0.00 0.00 85 1009.5
20260506044204 51 353 6.0 13.0 0.00 0.00 0.00 85 1009.5
20260506044104 51 350 6.0 13.0 0.00 0.00 0.00 85 1009.6
20260506044001 51 351 8.0 13.0 0.00 0.00 0.00 85 1009.5
20260506043901 51 0 8.0 13.0 0.00 0.00 0.00 85 1009.6
20260506043801 51 345 6.0 13.0 0.00 0.00 0.00 85 1009.5
20260506043702 51 348 6.0 13.0 0.00 0.00 0.00 85 1009.6
20260506043601 51 7 6.0 14.0 0.00 0.00 0.00 85 1009.6
20260506043501 51 319 7.0 14.0 0.00 0.00 0.00 85 1009.7
20260506043401 51 327 6.0 14.0 0.00 0.00 0.00 84 1009.6
20260506043302 51 320 6.0 14.0 0.00 0.00 0.00 84 1009.6
20260506043201 51 340 9.0 14.0 0.00 0.00 0.00 84 1009.6
20260506043101 51 330 8.0 14.0 0.00 0.00 0.00 84 1009.6
20260506043002 51 341 7.0 14.0 0.00 0.00 0.00 84 1009.6
20260506042901 51 348 9.0 14.0 0.00 0.00 0.00 84 1009.6
20260506042801 51 320 9.0 14.0 0.00 0.00 0.00 84 1009.6
20260506042701 51 344 8.0 14.0 0.00 0.00 0.00 84 1009.5
20260506042603 51 331 7.0 16.0 0.00 0.00 0.00 84 1009.5
20260506042503 51 320 8.0 16.0 0.00 0.00 0.00 84 1009.5
20260506042403 51 331 9.0 16.0 0.00 0.00 0.00 84 1009.6
20260506042304 51 310 8.0 16.0 0.00 0.00 0.00 84 1009.5
20260506042202 51 0 7.0 16.0 0.00 0.00 0.00 84 1009.5
20260506042101 51 344 7.0 16.0 0.00 0.00 0.00 84 1009.5
20260506042001 51 337 8.0 16.0 0.00 0.00 0.00 84 1009.4
20260506041905 51 351 8.0 16.0 0.00 0.00 0.00 84 1009.5
20260506041801 51 336 9.0 16.0 0.00 0.00 0.00 84 1009.4
20260506041658 51 327 9.0 16.0 0.00 0.00 0.00 84 1009.5
20260506041556 51 321 9.0 15.0 0.00 0.00 0.00 84 1009.5
20260506041454 51 0 8.0 15.0 0.00 0.00 0.00 84 1009.5
20260506041354 51 348 6.0 15.0 0.00 0.00 0.00 84 1009.5
20260506041254 51 0 7.0 15.0 0.00 0.00 0.00 84 1009.6
20260506041153 51 355 9.0 15.0 0.00 0.00 0.00 85 1009.6
20260506041052 51 344 9.0 15.0 0.00 0.00 0.00 85 1009.5
20260506040952 51 348 8.0 14.0 0.00 0.00 0.00 85 1009.7
20260506040852 51 334 9.0 14.0 0.00 0.00 0.00 85 1009.5
20260506040752 51 343 9.0 14.0 0.00 0.00 0.00 85 1009.6
20260506040651 51 303 9.0 14.0 0.00 0.00 0.00 85 1009.6
20260506040551 51 338 8.0 14.0 0.00 0.00 0.00 85 1009.6
20260506040448 51 320 10.0 14.0 0.00 0.00 0.00 85 1009.6
20260506040347 51 345 11.0 14.0 0.00 0.00 0.00 85 1009.6
20260506040247 51 341 9.0 14.0 0.00 0.00 0.00 85 1009.7
20260506040147 50 293 8.0 14.0 0.00 0.00 0.00 85 1009.7
20260506040044 50 341 8.0 14.0 0.00 0.00 0.00 85 1009.6
20260506035943 50 324 8.0 14.0 0.00 0.00 0.00 85 1009.6
20260506035844 50 343 7.0 14.0 0.00 0.00 0.00 85 1009.7
20260506035745 51 350 8.0 14.0 0.00 0.00 0.00 85 1009.7
20260506035644 50 334 9.0 14.0 0.00 0.00 0.00 85 1009.6
20260506035541 50 329 8.0 14.0 0.00 0.00 0.00 85 1009.7
20260506035445 50 326 7.0 14.0 0.00 0.00 0.00 85 1009.7
20260506035342 51 309 6.0 13.0 0.00 0.00 0.00 85 1009.7
20260506035241 51 345 6.0 13.0 0.00 0.00 0.00 85 1009.7
20260506035141 51 336 7.0 13.0 0.00 0.00 0.00 85 1009.7
20260506035040 50 343 9.0 13.0 0.00 0.00 0.00 85 1009.6
20260506034939 50 353 9.0 13.0 0.00 0.00 0.00 85 1009.7
20260506034847 50 0 8.0 13.0 0.00 0.00 0.00 85 1009.6
20260506034735 50 336 9.0 13.0 0.00 0.00 0.00 85 1009.7
20260506034636 50 351 9.0 13.0 0.00 0.00 0.00 85 1009.6
20260506034535 50 343 8.0 13.0 0.00 0.00 0.00 85 1009.7
20260506034437 50 333 5.0 10.0 0.00 0.00 0.00 85 1009.6
20260506034335 51 341 4.0 10.0 0.00 0.00 0.00 85 1009.7
20260506034235 51 303 4.0 10.0 0.00 0.00 0.00 85 1009.6
20260506034134 51 317 5.0 10.0 0.00 0.00 0.00 85 1009.7
20260506034034 51 313 6.0 10.0 0.00 0.00 0.00 85 1009.7
20260506033933 51 326 6.0 10.0 0.00 0.00 0.00 85 1009.7
20260506033833 51 333 6.0 11.0 0.00 0.00 0.00 85 1009.6
20260506033735 51 320 6.0 14.0 0.00 0.00 0.00 85 1009.6
20260506033634 51 321 5.0 14.0 0.00 0.00 0.00 85 1009.6
20260506033534 51 313 5.0 14.0 0.00 0.00 0.00 85 1009.7
20260506033434 51 307 5.0 14.0 0.00 0.00 0.00 85 1009.7
20260506033332 51 295 5.0 14.0 0.00 0.00 0.00 85 1009.8
20260506033233 51 337 6.0 14.0 0.00 0.00 0.00 85 1009.7
20260506033132 51 337 6.0 14.0 0.00 0.00 0.00 85 1009.7
20260506033033 51 338 7.0 16.0 0.00 0.00 0.00 85 1009.7
20260506032932 51 281 8.0 16.0 0.00 0.00 0.00 85 1009.8
20260506032832 51 314 7.0 16.0 0.00 0.00 0.00 85 1009.8
20260506032731 51 338 6.0 16.0 0.00 0.00 0.00 84 1009.8
20260506032631 51 337 6.0 16.0 0.00 0.00 0.00 84 1009.8
20260506032531 51 324 7.0 16.0 0.00 0.00 0.00 84 1009.8
20260506032431 51 336 9.0 16.0 0.00 0.00 0.00 84 1009.8
20260506032329 51 343 7.0 16.0 0.00 0.00 0.00 84 1009.8
20260506032230 51 341 8.0 16.0 0.00 0.00 0.00 84 1009.8
20260506032129 51 348 10.0 16.0 0.00 0.00 0.00 84 1009.8
20260506032030 51 324 8.0 14.0 0.00 0.00 0.00 84 1009.8
20260506031931 51 348 7.0 13.0 0.00 0.00 0.00 83 1009.8
20260506031832 51 330 6.0 13.0 0.00 0.00 0.00 83 1009.8
20260506031730 51 350 6.0 13.0 0.00 0.00 0.00 83 1009.8
20260506031628 51 320 8.0 15.0 0.00 0.00 0.00 83 1009.9
20260506031526 51 331 8.0 15.0 0.00 0.00 0.00 83 1009.8
20260506031430 51 355 8.0 15.0 0.00 0.00 0.00 83 1009.8
20260506031327 51 354 8.0 15.0 0.00 0.00 0.00 83 1009.8
20260506031225 51 0 7.0 15.0 0.00 0.00 0.00 83 1009.8
20260506031125 51 326 8.0 15.0 0.00 0.00 0.00 83 1009.8
20260506031024 51 351 7.0 15.0 0.00 0.00 0.00 83 1009.9
20260506030922 51 0 7.0 15.0 0.00 0.00 0.00 82 1009.9
20260506030821 51 0 9.0 15.0 0.00 0.00 0.00 82 1009.8
20260506030721 51 0 10.0 14.0 0.00 0.00 0.00 82 1009.8
20260506030623 51 323 9.0 14.0 0.00 0.00 0.00 82 1009.9
20260506030521 50 0 9.0 14.0 0.00 0.00 0.00 82 1009.9
20260506030421 50 323 7.0 14.0 0.00 0.00 0.00 82 1010.0
20260506030320 50 347 7.0 14.0 0.00 0.00 0.00 82 1009.8
20260506030219 50 340 9.0 14.0 0.00 0.00 0.00 82 1009.8
20260506030119 50 331 9.0 14.0 0.00 0.00 0.00 82 1009.9
20260506030019 50 341 8.0 14.0 0.00 0.00 0.00 82 1009.8
20260506025918 50 324 7.0 14.0 0.00 0.00 0.00 82 1009.9
20260506025819 50 0 8.0 14.0 0.00 0.00 0.00 82 1010.0
20260506025717 50 344 7.0 14.0 0.00 0.00 0.00 82 1009.9
20260506025617 50 333 6.0 13.0 0.00 0.00 0.00 82 1009.9
20260506025517 50 351 6.0 13.0 0.00 0.00 0.00 82 1010.0
20260506025413 50 337 7.0 13.0 0.00 0.00 0.00 82 1010.0
20260506025313 50 343 6.0 13.0 0.00 0.00 0.00 81 1009.9
20260506025213 50 343 6.0 11.0 0.00 0.00 0.00 81 1010.0
20260506025113 50 338 7.0 11.0 0.00 0.00 0.00 81 1010.0
20260506025012 50 343 6.0 14.0 0.00 0.00 0.00 81 1010.0
20260506024912 51 336 7.0 14.0 0.00 0.00 0.00 81 1010.0
20260506024811 51 354 7.0 14.0 0.00 0.00 0.00 81 1010.0
20260506024714 51 357 6.0 14.0 0.00 0.00 0.00 81 1010.0
20260506024613 51 347 6.0 14.0 0.00 0.00 0.00 81 1010.0
20260506024508 51 353 7.0 14.0 0.00 0.00 0.00 81 1010.0
20260506024405 51 341 7.0 15.0 0.00 0.00 0.00 81 1010.1
20260506024304 51 354 7.0 15.0 0.00 0.00 0.00 80 1010.1
20260506024207 51 354 9.0 15.0 0.00 0.00 0.00 80 1010.0
20260506024106 51 337 9.0 15.0 0.00 0.00 0.00 80 1010.0
20260506024004 51 321 9.0 15.0 0.00 0.00 0.00 80 1010.1
20260506023904 51 338 9.0 15.0 0.00 0.00 0.00 80 1010.0
20260506023804 51 292 6.0 15.0 0.00 0.00 0.00 80 1010.1
20260506023704 51 357 6.0 15.0 0.00 0.00 0.00 80 1010.1
20260506023604 51 348 7.0 15.0 0.00 0.00 0.00 80 1010.1
20260506023503 51 0 8.0 15.0 0.00 0.00 0.00 80 1010.1
20260506023402 51 0 9.0 15.0 0.00 0.00 0.00 80 1010.0
20260506023302 50 330 10.0 15.0 0.00 0.00 0.00 80 1010.1
20260506023202 50 333 9.0 15.0 0.00 0.00 0.00 80 1010.1
20260506023101 50 340 9.0 14.0 0.00 0.00 0.00 80 1010.0
20260506023002 50 0 9.0 14.0 0.00 0.00 0.00 80 1010.1
20260506022901 50 358 9.0 14.0 0.00 0.00 0.00 80 1010.0
20260506022801 50 340 7.0 13.0 0.00 0.00 0.00 80 1010.1
20260506022701 50 350 7.0 13.0 0.00 0.00 0.00 80 1010.0
20260506022601 50 347 8.0 13.0 0.00 0.00 0.00 80 1010.1
20260506022501 50 355 8.0 13.0 0.00 0.00 0.00 80 1010.0
20260506022402 50 350 7.0 13.0 0.00 0.00 0.00 80 1010.0
20260506022305 50 327 7.0 13.0 0.00 0.00 0.00 80 1010.1
20260506022201 50 343 7.0 13.0 0.00 0.00 0.00 80 1010.1
20260506022101 50 0 7.0 13.0 0.00 0.00 0.00 80 1010.1
20260506022001 50 341 8.0 13.0 0.00 0.00 0.00 80 1010.1
20260506021902 50 337 8.0 13.0 0.00 0.00 0.00 80 1010.1
20260506021803 50 321 7.0 16.0 0.00 0.00 0.00 80 1010.1
20260506021704 50 343 8.0 16.0 0.00 0.00 0.00 80 1010.1
20260506021603 50 309 8.0 16.0 0.00 0.00 0.00 80 1010.1
20260506021502 50 3 8.0 16.0 0.00 0.00 0.00 80 1010.1
20260506021402 50 0 8.0 16.0 0.00 0.00 0.00 80 1010.1
20260506021301 50 0 7.0 16.0 0.00 0.00 0.00 80 1010.1
20260506021200 50 24 8.0 16.0 0.00 0.00 0.00 80 1010.1
20260506021102 50 347 8.0 16.0 0.00 0.00 0.00 80 1010.1
20260506021001 50 330 8.0 16.0 0.00 0.00 0.00 80 1010.1
20260506020901 50 0 8.0 16.0 0.00 0.00 0.00 80 1010.1
20260506020801 50 334 7.0 14.0 0.00 0.00 0.00 80 1010.2
20260506020702 50 324 7.0 14.0 0.00 0.00 0.00 80 1010.2
20260506020601 50 0 7.0 14.0 0.00 0.00 0.00 80 1010.1
20260506020501 50 336 8.0 14.0 0.00 0.00 0.00 80 1010.1
20260506020359 50 350 8.0 13.0 0.00 0.00 0.00 80 1010.2
20260506020258 50 333 8.0 13.0 0.00 0.00 0.00 80 1010.2
20260506020157 50 319 7.0 13.0 0.00 0.00 0.00 80 1010.2
20260506020057 50 321 6.0 13.0 0.00 0.00 0.00 80 1010.2
20260506015951 50 345 7.0 13.0 0.00 0.00 0.00 81 1010.1
20260506015851 50 343 7.0 13.0 0.00 0.00 0.00 81 1010.2
20260506015750 50 326 6.0 13.0 0.00 0.00 0.00 81 1010.1
20260506015649 50 337 6.0 13.0 0.00 0.00 0.00 81 1010.1
20260506015546 50 340 7.0 13.0 0.00 0.00 0.00 81 1010.2
20260506015445 50 341 8.0 13.0 0.00 0.00 0.00 81 1010.2
20260506015342 50 3 7.0 13.0 0.00 0.00 0.00 81 1010.2
20260506015241 50 353 7.0 12.0 0.00 0.00 0.00 81 1010.2
20260506015141 50 336 7.0 12.0 0.00 0.00 0.00 81 1010.3
20260506015040 50 353 7.0 12.0 0.00 0.00 0.00 81 1010.3
20260506014937 50 0 7.0 13.0 0.00 0.00 0.00 81 1010.2
20260506014837 50 0 8.0 13.0 0.00 0.00 0.00 81 1010.2
20260506014737 50 336 6.0 13.0 0.00 0.00 0.00 81 1010.2
20260506014639 50 347 5.0 13.0 0.00 0.00 0.00 81 1010.2
20260506014537 50 0 6.0 13.0 0.00 0.00 0.00 81 1010.2
20260506014434 50 0 5.0 13.0 0.00 0.00 0.00 81 1010.2
20260506014335 50 313 6.0 13.0 0.00 0.00 0.00 81 1010.2
20260506014234 50 341 7.0 13.0 0.00 0.00 0.00 81 1010.2
20260506014134 50 348 8.0 13.0 0.00 0.00 0.00 81 1010.2
20260506014033 50 354 8.0 13.0 0.00 0.00 0.00 81 1010.2
20260506013933 50 338 8.0 11.0 0.00 0.00 0.00 81 1010.2
20260506013833 50 338 8.0 11.0 0.00 0.00 0.00 81 1010.3
20260506013729 50 333 7.0 11.0 0.00 0.00 0.00 81 1010.3
20260506013630 50 347 6.0 11.0 0.00 0.00 0.00 81 1010.2
20260506013528 50 327 6.0 11.0 0.00 0.00 0.00 81 1010.2
20260506013430 50 343 6.0 11.0 0.00 0.00 0.00 81 1010.2
20260506013330 50 354 6.0 11.0 0.00 0.00 0.00 81 1010.2
20260506013229 50 326 7.0 11.0 0.00 0.00 0.00 81 1010.2
20260506013129 50 336 8.0 11.0 0.00 0.00 0.00 81 1010.3
20260506013029 50 344 7.0 11.0 0.00 0.00 0.00 81 1010.3
20260506012929 50 0 7.0 11.0 0.00 0.00 0.00 81 1010.3
20260506012829 50 337 6.0 11.0 0.00 0.00 0.00 81 1010.2
20260506012730 50 330 5.0 12.0 0.00 0.00 0.00 81 1010.2
20260506012630 50 0 6.0 12.0 0.00 0.00 0.00 81 1010.2
20260506012529 50 11 6.0 13.0 0.00 0.00 0.00 81 1010.2
20260506012429 50 326 6.0 13.0 0.00 0.00 0.00 81 1010.2
20260506012328 50 331 6.0 13.0 0.00 0.00 0.00 81 1010.2
20260506012230 50 336 7.0 13.0 0.00 0.00 0.00 80 1010.2
20260506012131 50 326 6.0 13.0 0.00 0.00 0.00 80 1010.3
20260506012033 50 344 5.0 13.0 0.00 0.00 0.00 80 1010.2
20260506011931 50 343 6.0 13.0 0.00 0.00 0.00 80 1010.3
20260506011830 50 358 7.0 13.0 0.00 0.00 0.00 80 1010.2
20260506011729 50 343 7.0 13.0 0.00 0.00 0.00 80 1010.2
20260506011630 50 0 7.0 13.0 0.00 0.00 0.00 80 1010.3
20260506011529 50 336 6.0 13.0 0.00 0.00 0.00 80 1010.3
20260506011429 50 357 5.0 12.0 0.00 0.00 0.00 80 1010.3
20260506011329 50 351 6.0 13.0 0.00 0.00 0.00 80 1010.2
20260506011228 50 341 7.0 13.0 0.00 0.00 0.00 79 1010.3
20260506011129 50 329 7.0 13.0 0.00 0.00 0.00 79 1010.3
20260506011028 50 0 7.0 13.0 0.00 0.00 0.00 80 1010.3
20260506010930 50 343 7.0 13.0 0.00 0.00 0.00 80 1010.2
20260506010829 50 0 6.0 13.0 0.00 0.00 0.00 80 1010.3
20260506010729 50 345 6.0 13.0 0.00 0.00 0.00 80 1010.3
20260506010630 50 0 7.0 13.0 0.00 0.00 0.00 80 1010.3
20260506010529 50 351 7.0 13.0 0.00 0.00 0.00 80 1010.3
20260506010429 50 344 7.0 13.0 0.00 0.00 0.00 80 1010.2
20260506010329 50 353 7.0 13.0 0.00 0.00 0.00 80 1010.3
20260506010231 50 334 8.0 13.0 0.00 0.00 0.00 81 1010.3
20260506010131 50 343 8.0 13.0 0.00 0.00 0.00 81 1010.2
20260506010030 50 0 7.0 13.0 0.00 0.00 0.00 81 1010.2
20260506005929 50 306 5.0 12.0 0.00 0.00 0.00 81 1010.3
20260506005828 50 351 6.0 12.0 0.00 0.00 0.00 81 1010.3
20260506005727 50 329 7.0 12.0 0.00 0.00 0.00 81 1010.2
20260506005627 50 0 7.0 12.0 0.00 0.00 0.00 81 1010.2
20260506005526 50 345 6.0 12.0 0.00 0.00 0.00 81 1010.3
20260506005426 50 353 8.0 12.0 0.00 0.00 0.00 81 1010.3
20260506005327 50 350 7.0 12.0 0.00 0.00 0.00 80 1010.3
20260506005224 50 357 5.0 12.0 0.00 0.00 0.00 80 1010.3
20260506005122 50 0 5.0 12.0 0.00 0.00 0.00 80 1010.3
20260506005022 50 0 5.0 12.0 0.00 0.00 0.00 80 1010.4
20260506004922 50 347 6.0 14.0 0.00 0.00 0.00 80 1010.3
20260506004819 50 353 6.0 14.0 0.00 0.00 0.00 80 1010.4
20260506004719 50 4 6.0 14.0 0.00 0.00 0.00 80 1010.4
20260506004618 50 305 7.0 14.0 0.00 0.00 0.00 80 1010.4
20260506004518 50 336 7.0 14.0 0.00 0.00 0.00 80 1010.4
20260506004417 50 329 6.0 14.0 0.00 0.00 0.00 80 1010.4
20260506004316 50 0 5.0 14.0 0.00 0.00 0.00 80 1010.4
20260506004214 50 323 5.0 14.0 0.00 0.00 0.00 80 1010.5
20260506004114 50 0 6.0 14.0 0.00 0.00 0.00 80 1010.4
20260506004014 50 0 7.0 14.0 0.00 0.00 0.00 80 1010.4
20260506003913 50 0 5.0 14.0 0.00 0.00 0.00 80 1010.4
20260506003814 50 0 6.0 14.0 0.00 0.00 0.00 80 1010.5
20260506003712 50 348 9.0 14.0 0.00 0.00 0.00 80 1010.5
20260506003612 50 0 9.0 14.0 0.00 0.00 0.00 80 1010.5
20260506003514 50 343 7.0 14.0 0.00 0.00 0.00 80 1010.4
20260506003413 50 28 7.0 14.0 0.00 0.00 0.00 80 1010.5
20260506003310 50 351 8.0 14.0 0.00 0.00 0.00 80 1010.4
20260506003211 50 353 9.0 14.0 0.00 0.00 0.00 80 1010.5
20260506003109 50 357 9.0 14.0 0.00 0.00 0.00 81 1010.5
20260506003008 50 351 9.0 14.0 0.00 0.00 0.00 81 1010.5
20260506002907 50 358 9.0 14.0 0.00 0.00 0.00 81 1010.5
20260506002806 50 0 9.0 14.0 0.00 0.00 0.00 81 1010.6
20260506002706 50 357 9.0 14.0 0.00 0.00 0.00 81 1010.7
20260506002603 50 338 7.0 14.0 0.00 0.00 0.00 81 1010.6
20260506002502 50 351 6.0 14.0 0.00 0.00 0.00 81 1010.6
20260506002402 50 6 6.0 14.0 0.00 0.00 0.00 81 1010.7
20260506002301 50 0 5.0 11.0 0.00 0.00 0.00 81 1010.6
20260506002201 50 348 5.0 11.0 0.00 0.00 0.00 81 1010.6
20260506002101 50 330 6.0 11.0 0.00 0.00 0.00 81 1010.7
20260506002002 50 319 6.0 12.0 0.00 0.00 0.00 81 1010.6
20260506001902 50 0 6.0 12.0 0.00 0.00 0.00 81 1010.6
20260506001802 50 312 6.0 12.0 0.00 0.00 0.00 81 1010.6
20260506001701 50 343 6.0 12.0 0.00 0.00 0.00 81 1010.6
20260506001601 50 345 7.0 12.0 0.00 0.00 0.00 81 1010.6
20260506001501 50 354 7.0 12.0 0.00 0.00 0.00 81 1010.7
20260506001401 50 0 7.0 12.0 0.00 0.00 0.00 81 1010.7
20260506001301 50 0 7.0 12.0 0.00 0.00 0.00 81 1010.7
20260506001201 50 321 8.0 12.0 0.00 0.00 0.00 81 1010.6
20260506001103 50 347 8.0 12.0 0.00 0.00 0.00 81 1010.7
20260506001001 50 326 8.0 12.0 0.00 0.00 0.00 81 1010.7
20260506000858 50 331 8.0 12.0 0.00 0.00 0.00 81 1010.7
20260506000757 50 347 7.0 12.0 0.00 0.00 0.00 81 1010.7
20260506000657 50 0 6.0 12.0 0.00 0.00 0.00 81 1010.7
20260506000556 50 353 7.0 12.0 0.00 0.00 0.00 81 1010.6
20260506000455 50 347 8.0 12.0 0.00 0.00 0.00 81 1010.8
20260506000355 50 354 6.0 12.0 0.00 0.00 0.00 81 1010.7
20260506000255 50 345 4.0 10.0 0.00 0.00 0.00 81 1010.8
20260506000152 50 337 4.0 10.0 0.00 0.00 0.00 81 1010.7
20260506000051 50 0 5.0 10.0 0.00 0.00 0.00 81 1010.7
20260505235949 50 0 6.0 10.0 0.00 0.00 0.00 81 1010.7
20260505235848 50 340 6.0 10.0 0.00 0.00 0.00 81 1010.8
20260505235747 50 0 6.0 10.0 0.00 0.00 0.00 81 1010.7
20260505235647 50 344 6.0 12.0 0.00 0.00 0.00 81 1010.8
20260505235546 50 0 6.0 12.0 0.00 0.00 0.00 80 1010.7
20260505235445 50 348 5.0 12.0 0.00 0.00 0.00 80 1010.8
20260505235343 50 357 5.0 12.0 0.00 0.00 0.00 80 1010.8
20260505235240 50 341 6.0 12.0 0.00 0.00 0.00 80 1010.8
20260505235140 50 0 6.0 12.0 0.00 0.00 0.00 80 1010.7
20260505235039 50 0 6.0 13.0 0.00 0.00 0.00 80 1010.8
20260505234940 50 350 6.0 13.0 0.00 0.00 0.00 80 1010.7
20260505234840 50 0 6.0 13.0 0.00 0.00 0.00 80 1010.8
20260505234736 50 358 6.0 13.0 0.00 0.00 0.00 80 1010.7
20260505234636 50 351 5.0 13.0 0.00 0.00 0.00 80 1010.7
20260505234536 50 333 7.0 13.0 0.00 0.00 0.00 80 1010.8
20260505234434 50 0 7.0 13.0 0.00 0.00 0.00 80 1010.7
20260505234334 50 355 8.0 13.0 0.00 0.00 0.00 80 1010.8
20260505234235 50 0 8.0 13.0 0.00 0.00 0.00 80 1010.7
20260505234133 50 0 7.0 13.0 0.00 0.00 0.00 80 1010.8
20260505234033 50 337 8.0 13.0 0.00 0.00 0.00 80 1010.8
20260505233932 50 0 6.0 13.0 0.00 0.00 0.00 80 1010.8
20260505233832 50 354 6.0 12.0 0.00 0.00 0.00 80 1010.8
20260505233732 50 0 8.0 12.0 0.00 0.00 0.00 80 1010.8
20260505233632 50 344 7.0 12.0 0.00 0.00 0.00 80 1010.8
20260505233532 50 8 7.0 12.0 0.00 0.00 0.00 80 1010.8
20260505233432 50 13 8.0 13.0 0.00 0.00 0.00 80 1010.8
20260505233332 50 25 7.0 13.0 0.00 0.00 0.00 80 1010.8
20260505233233 50 326 7.0 13.0 0.00 0.00 0.00 80 1010.7
20260505233133 50 343 7.0 13.0 0.00 0.00 0.00 80 1010.8
20260505233033 50 16 7.0 13.0 0.00 0.00 0.00 80 1010.8
20260505232934 50 354 8.0 13.0 0.00 0.00 0.00 80 1010.8
20260505232832 50 0 8.0 13.0 0.00 0.00 0.00 80 1010.8
20260505232732 50 0 9.0 13.0 0.00 0.00 0.00 80 1010.8
20260505232632 50 343 8.0 13.0 0.00 0.00 0.00 80 1010.9
20260505232533 50 0 7.0 13.0 0.00 0.00 0.00 80 1010.8
20260505232432 50 354 6.0 14.0 0.00 0.00 0.00 80 1010.9
20260505232333 50 358 7.0 14.0 0.00 0.00 0.00 80 1010.8
20260505232232 50 327 6.0 14.0 0.00 0.00 0.00 80 1010.8
20260505232132 50 0 5.0 16.0 0.00 0.00 0.00 80 1010.8
20260505232032 51 0 5.0 16.0 0.00 0.00 0.00 80 1010.8
20260505231932 51 0 7.0 16.0 0.00 0.00 0.00 79 1010.8
20260505231832 51 353 8.0 16.0 0.00 0.00 0.00 79 1010.8
20260505231734 51 340 9.0 16.0 0.00 0.00 0.00 79 1010.8
20260505231633 51 348 8.0 16.0 0.00 0.00 0.00 79 1010.9
20260505231532 51 320 7.0 16.0 0.00 0.00 0.00 79 1010.9
20260505231432 51 344 8.0 16.0 0.00 0.00 0.00 79 1010.9
20260505231332 51 341 9.0 17.0 0.00 0.00 0.00 79 1010.9
20260505231233 51 0 9.0 17.0 0.00 0.00 0.00 79 1010.9
20260505231134 51 3 8.0 17.0 0.00 0.00 0.00 79 1010.9
20260505231032 51 0 8.0 17.0 0.00 0.00 0.00 79 1010.9
20260505230931 51 334 8.0 17.0 0.00 0.00 0.00 79 1010.9
20260505230833 51 1 7.0 17.0 0.00 0.00 0.00 79 1010.9
20260505230732 51 354 9.0 17.0 0.00 0.00 0.00 79 1010.8
20260505230633 51 0 9.0 17.0 0.00 0.00 0.00 79 1010.9
20260505230533 51 348 9.0 17.0 0.00 0.00 0.00 79 1010.9
20260505230432 51 32 9.0 17.0 0.00 0.00 0.00 79 1011.0
20260505230332 51 357 9.0 15.0 0.00 0.00 0.00 79 1010.9
20260505230232 51 357 9.0 15.0 0.00 0.00 0.00 79 1011.0
20260505230133 51 358 8.0 14.0 0.00 0.00 0.00 79 1011.0
20260505230032 51 355 7.0 14.0 0.00 0.00 0.00 79 1010.9
20260505225933 51 330 6.0 14.0 0.00 0.00 0.00 79 1010.9
20260505225832 51 334 6.0 14.0 0.00 0.00 0.00 79 1010.9
20260505225733 51 0 7.0 14.0 0.00 0.00 0.00 79 1011.0
20260505225632 51 355 8.0 14.0 0.00 0.00 0.00 79 1011.0
20260505225534 51 0 8.0 13.0 0.00 0.00 0.00 79 1011.0
20260505225433 51 3 6.0 13.0 0.00 0.00 0.00 79 1011.0
20260505225334 51 345 7.0 13.0 0.00 0.00 0.00 79 1011.0
20260505225234 51 0 8.0 13.0 0.00 0.00 0.00 79 1011.0
20260505225134 51 344 8.0 13.0 0.00 0.00 0.00 79 1010.9
20260505225034 51 334 8.0 13.0 0.00 0.00 0.00 78 1011.0
20260505224933 51 353 7.0 13.0 0.00 0.00 0.00 78 1010.9
20260505224833 51 0 8.0 13.0 0.00 0.00 0.00 78 1011.0
20260505224732 51 320 9.0 13.0 0.00 0.00 0.00 78 1011.0
20260505224632 51 350 8.0 13.0 0.00 0.00 0.00 79 1011.0
20260505224532 51 350 8.0 13.0 0.00 0.00 0.00 79 1011.0
20260505224432 51 336 9.0 14.0 0.00 0.00 0.00 79 1011.0
20260505224333 51 334 9.0 14.0 0.00 0.00 0.00 79 1011.0
20260505224233 51 354 8.0 14.0 0.00 0.00 0.00 79 1011.0
20260505224132 51 337 8.0 14.0 0.00 0.00 0.00 79 1010.9
20260505224033 51 338 8.0 14.0 0.00 0.00 0.00 79 1010.9
20260505223931 51 0 9.0 14.0 0.00 0.00 0.00 79 1010.9
20260505223832 51 338 9.0 14.0 0.00 0.00 0.00 79 1011.0
20260505223732 51 329 8.0 14.0 0.00 0.00 0.00 79 1011.0
20260505223632 51 334 9.0 14.0 0.00 0.00 0.00 79 1011.0
20260505223532 51 340 8.0 14.0 0.00 0.00 0.00 79 1011.0
20260505223434 51 344 7.0 12.0 0.00 0.00 0.00 79 1011.0
20260505223335 51 0 6.0 12.0 0.00 0.00 0.00 80 1011.0
20260505223234 51 1 7.0 12.0 0.00 0.00 0.00 80 1011.1
20260505223135 51 4 8.0 12.0 0.00 0.00 0.00 80 1011.1
20260505223034 51 0 6.0 12.0 0.00 0.00 0.00 80 1011.1
20260505222932 51 0 6.0 12.0 0.00 0.00 0.00 80 1011.1
20260505222833 51 0 6.0 14.0 0.00 0.00 0.00 80 1011.1
20260505222732 51 0 6.0 14.0 0.00 0.00 0.00 80 1011.1
20260505222632 51 0 6.0 14.0 0.00 0.00 0.00 80 1011.1
20260505222532 51 353 5.0 14.0 0.00 0.00 0.00 80 1011.1
20260505222432 51 0 6.0 14.0 0.00 0.00 0.00 80 1011.0
20260505222332 51 24 6.0 14.0 0.00 0.00 0.00 79 1011.0
20260505222232 51 336 7.0 14.0 0.00 0.00 0.00 79 1011.1
20260505222132 51 357 6.0 14.0 0.00 0.00 0.00 79 1011.1
20260505222031 51 345 7.0 14.0 0.00 0.00 0.00 79 1011.1
20260505221932 51 39 8.0 14.0 0.00 0.00 0.00 79 1011.1
20260505221831 51 27 7.0 13.0 0.00 0.00 0.00 79 1011.1
20260505221732 51 4 7.0 13.0 0.00 0.00 0.00 79 1011.1
20260505221632 51 354 7.0 13.0 0.00 0.00 0.00 79 1011.0
20260505221532 51 347 7.0 13.0 0.00 0.00 0.00 79 1011.1
20260505221432 51 0 6.0 13.0 0.00 0.00 0.00 80 1011.1
20260505221333 51 0 6.0 13.0 0.00 0.00 0.00 80 1011.1
20260505221233 51 345 5.0 13.0 0.00 0.00 0.00 80 1011.1
20260505221134 51 18 5.0 13.0 0.00 0.00 0.00 80 1011.1
20260505221034 51 1 7.0 13.0 0.00 0.00 0.00 80 1011.1
20260505220935 51 6 8.0 13.0 0.00 0.00 0.00 80 1011.2
20260505220834 51 338 6.0 13.0 0.00 0.00 0.00 80 1011.2
20260505220734 51 6 6.0 13.0 0.00 0.00 0.00 80 1011.2
20260505220634 51 348 7.0 13.0 0.00 0.00 0.00 81 1011.1
20260505220532 51 358 8.0 13.0 0.00 0.00 0.00 81 1011.1
20260505220432 51 0 7.0 13.0 0.00 0.00 0.00 81 1011.1
20260505220332 51 353 5.0 12.0 0.00 0.00 0.00 82 1011.1
20260505220233 51 14 5.0 11.0 0.00 0.00 0.00 82 1011.1
20260505220132 51 23 5.0 11.0 0.00 0.00 0.00 82 1011.1
20260505220032 51 6 5.0 11.0 0.00 0.00 0.00 82 1011.1
20260505215932 51 336 6.0 11.0 0.00 0.00 0.00 82 1011.1
20260505215832 51 4 5.0 12.0 0.00 0.00 0.00 82 1011.1
20260505215732 51 0 5.0 12.0 0.00 0.00 0.00 82 1011.1
20260505215632 51 345 5.0 12.0 0.00 0.00 0.00 82 1011.1
20260505215531 51 337 6.0 13.0 0.00 0.00 0.00 82 1011.0
20260505215432 51 0 7.0 13.0 0.00 0.00 0.00 81 1011.1
20260505215335 51 327 6.0 13.0 0.00 0.00 0.00 81 1011.2
20260505215232 51 1 6.0 14.0 0.00 0.00 0.00 81 1011.1
20260505215133 51 8 6.0 14.0 0.00 0.00 0.00 81 1011.1
20260505215032 51 7 6.0 14.0 0.00 0.00 0.00 81 1011.0
20260505214932 51 323 8.0 15.0 0.00 0.00 0.00 81 1011.0
20260505214832 51 340 8.0 16.0 0.00 0.00 0.00 81 1011.0
20260505214732 51 331 8.0 16.0 0.00 0.00 0.00 81 1011.0
20260505214632 52 0 7.0 16.0 0.00 0.00 0.00 81 1011.1
20260505214531 52 16 7.0 16.0 0.00 0.00 0.00 81 1011.1
20260505214435 52 351 8.0 16.0 0.00 0.00 0.00 81 1011.1
20260505214333 52 334 8.0 16.0 0.00 0.00 0.00 81 1011.0
20260505214234 52 0 7.0 16.0 0.00 0.00 0.00 81 1011.1
20260505214133 52 343 8.0 16.0 0.00 0.00 0.00 81 1011.1
20260505214034 52 0 9.0 16.0 0.00 0.00 0.00 81 1011.1
20260505213932 52 350 9.0 16.0 0.00 0.00 0.00 81 1011.1
20260505213833 52 326 9.0 16.0 0.00 0.00 0.00 81 1011.1
20260505213733 52 334 9.0 16.0 0.00 0.00 0.00 81 1011.1
20260505213632 52 340 9.0 16.0 0.00 0.00 0.00 81 1011.1
20260505213532 52 334 9.0 16.0 0.00 0.00 0.00 81 1011.2
20260505213432 52 336 8.0 16.0 0.00 0.00 0.00 81 1011.1
20260505213332 52 334 9.0 16.0 0.00 0.00 0.00 81 1011.1
20260505213232 52 353 9.0 16.0 0.00 0.00 0.00 81 1011.2
20260505213132 52 14 8.0 13.0 0.00 0.00 0.00 81 1011.1
20260505213032 52 340 8.0 13.0 0.00 0.00 0.00 81 1011.2
20260505212932 52 334 8.0 13.0 0.00 0.00 0.00 81 1011.1
20260505212832 52 0 8.0 13.0 0.00 0.00 0.00 81 1011.2
20260505212731 52 357 8.0 14.0 0.00 0.00 0.00 81 1011.2
20260505212634 52 0 7.0 14.0 0.00 0.00 0.00 81 1011.1
20260505212534 52 314 7.0 14.0 0.00 0.00 0.00 81 1011.2
20260505212432 52 331 7.0 14.0 0.00 0.00 0.00 81 1011.2
20260505212332 52 330 7.0 14.0 0.00 0.00 0.00 80 1011.2
20260505212232 52 324 6.0 15.0 0.00 0.00 0.00 81 1011.2
20260505212132 52 302 7.0 15.0 0.00 0.00 0.00 81 1011.1
20260505212032 52 336 7.0 17.0 0.00 0.00 0.00 80 1011.2
20260505211932 52 323 9.0 17.0 0.00 0.00 0.00 81 1011.2
20260505211832 52 7 8.0 17.0 0.00 0.00 0.00 81 1011.1
20260505211731 52 345 8.0 17.0 0.00 0.00 0.00 81 1011.2
20260505211633 52 343 8.0 17.0 0.00 0.00 0.00 81 1011.0
20260505211531 52 327 8.0 17.0 0.00 0.00 0.00 81 1011.2
20260505211432 52 0 9.0 17.0 0.00 0.00 0.00 81 1011.1
20260505211332 52 0 9.0 17.0 0.00 0.00 0.00 81 1011.2
20260505211232 52 331 9.0 17.0 0.00 0.00 0.00 81 1011.1
20260505211131 52 350 10.0 17.0 0.00 0.00 0.00 81 1011.1
20260505211032 52 353 9.0 14.0 0.00 0.00 0.00 81 1011.2
20260505210930 52 0 8.0 14.0 0.00 0.00 0.00 81 1011.1
20260505210830 52 0 7.0 14.0 0.00 0.00 0.00 82 1011.2
20260505210730 52 340 6.0 14.0 0.00 0.00 0.00 82 1011.2
20260505210630 52 344 6.0 14.0 0.00 0.00 0.00 82 1011.2
20260505210529 52 0 7.0 14.0 0.00 0.00 0.00 81 1011.1
20260505210426 52 0 7.0 14.0 0.00 0.00 0.00 82 1011.2
20260505210326 52 0 8.0 14.0 0.00 0.00 0.00 82 1011.1
20260505210227 52 0 7.0 14.0 0.00 0.00 0.00 82 1011.1
20260505210128 52 344 7.0 14.0 0.00 0.00 0.00 82 1011.2
20260505210027 52 338 8.0 16.0 0.00 0.00 0.00 82 1011.2
20260505205925 52 10 8.0 16.0 0.00 0.00 0.00 82 1011.2
20260505205825 52 298 7.0 16.0 0.00 0.00 0.00 82 1011.2
20260505205722 52 0 8.0 16.0 0.00 0.00 0.00 82 1011.2
20260505205622 52 0 9.0 16.0 0.00 0.00 0.00 82 1011.2
20260505205519 52 0 7.0 16.0 0.00 0.00 0.00 82 1011.2
20260505205421 52 344 6.0 16.0 0.00 0.00 0.00 82 1011.2
20260505205320 52 347 7.0 16.0 0.00 0.00 0.00 82 1011.2
20260505205220 52 313 9.0 16.0 0.00 0.00 0.00 82 1011.1
20260505205119 52 326 9.0 16.0 0.00 0.00 0.00 82 1011.3
20260505205019 52 0 8.0 15.0 0.00 0.00 0.00 82 1011.1
20260505204918 52 31 8.0 16.0 0.00 0.00 0.00 82 1011.2
20260505204817 52 344 10.0 16.0 0.00 0.00 0.00 82 1011.3
20260505204715 52 300 9.0 16.0 0.00 0.00 0.00 82 1011.2
20260505204614 52 336 8.0 16.0 0.00 0.00 0.00 82 1011.2
20260505204515 52 334 7.0 17.0 0.00 0.00 0.00 82 1011.3
20260505204413 52 343 8.0 17.0 0.00 0.00 0.00 82 1011.3
20260505204314 52 6 8.0 17.0 0.00 0.00 0.00 82 1011.3
20260505204213 52 354 9.0 17.0 0.00 0.00 0.00 82 1011.2
20260505204112 52 7 10.0 17.0 0.00 0.00 0.00 82 1011.1
20260505204009 52 4 10.0 17.0 0.00 0.00 0.00 82 1011.2
20260505203910 52 330 8.0 17.0 0.00 0.00 0.00 82 1011.2
20260505203803 52 1 8.0 17.0 0.00 0.00 0.00 82 1011.2
20260505203702 52 355 10.0 17.0 0.00 0.00 0.00 82 1011.2
20260505203602 52 0 11.0 17.0 0.00 0.00 0.00 82 1011.2
20260505203500 52 343 10.0 17.0 0.00 0.00 0.00 82 1011.2
20260505203400 52 0 9.0 17.0 0.00 0.00 0.00 82 1011.2
20260505203300 52 355 9.0 17.0 0.00 0.00 0.00 82 1011.2
20260505203158 52 348 8.0 21.0 0.00 0.00 0.00 82 1011.2
20260505203059 52 30 10.0 21.0 0.00 0.00 0.00 82 1011.2
20260505202958 52 337 10.0 21.0 0.00 0.00 0.00 82 1011.2
20260505202900 52 0 10.0 21.0 0.00 0.00 0.00 82 1011.1
20260505202800 52 358 10.0 21.0 0.00 0.00 0.00 82 1011.2
20260505202653 52 0 10.0 21.0 0.00 0.00 0.00 82 1011.1
20260505202549 52 0 9.0 21.0 0.00 0.00 0.00 82 1011.1
20260505202448 52 347 10.0 21.0 0.00 0.00 0.00 82 1011.2
20260505202348 52 357 11.0 21.0 0.00 0.00 0.00 82 1011.2
20260505202245 52 343 9.0 21.0 0.00 0.00 0.00 82 1011.1
20260505202144 52 11 9.0 18.0 0.00 0.00 0.00 82 1011.1
20260505202045 53 341 10.0 18.0 0.00 0.00 0.00 82 1011.1
20260505201944 53 348 10.0 18.0 0.00 0.00 0.00 82 1011.0
20260505201846 53 330 10.0 18.0 0.00 0.00 0.00 82 1011.1
20260505201745 53 350 11.0 18.0 0.00 0.00 0.00 82 1011.0
20260505201639 53 0 11.0 18.0 0.00 0.00 0.00 82 1011.1
20260505201539 53 326 10.0 20.0 0.00 0.00 0.00 82 1011.1
20260505201434 53 32 11.0 20.0 0.00 0.00 0.00 82 1011.0
20260505201337 53 347 9.0 20.0 0.00 0.00 0.00 82 1011.1
20260505201232 53 357 8.0 20.0 0.00 0.00 0.00 82 1011.1
20260505201132 53 330 11.0 20.0 0.00 0.00 0.00 82 1011.2
20260505201032 53 0 11.0 20.0 0.00 0.00 0.00 82 1011.1
20260505200931 53 313 10.0 20.0 0.00 0.00 0.00 82 1011.1
20260505200832 53 6 10.0 20.0 0.00 0.00 0.00 82 1011.2
20260505200732 53 330 11.0 20.0 0.00 0.00 0.00 81 1011.2
20260505200632 53 357 11.0 20.0 0.00 0.00 0.00 81 1011.2
20260505200532 53 330 11.0 18.0 0.00 0.00 0.00 81 1011.1
20260505200432 53 347 11.0 18.0 0.00 0.00 0.00 82 1011.1
20260505200333 53 329 11.0 18.0 0.00 0.00 0.00 81 1011.1
20260505200232 53 330 11.0 17.0 0.00 0.00 0.00 82 1011.1
20260505200132 53 330 10.0 17.0 0.00 0.00 0.00 82 1011.2
20260505200034 53 3 9.0 17.0 0.00 0.00 0.00 81 1011.2
20260505195934 53 345 10.0 17.0 0.00 0.00 0.00 81 1011.1
20260505195834 53 0 9.0 17.0 0.00 0.00 0.00 81 1011.1
20260505195733 53 0 8.0 17.0 0.00 0.00 0.00 81 1011.1
20260505195633 53 357 9.0 18.0 0.00 0.00 0.00 81 1011.0
20260505195532 53 320 9.0 18.0 0.00 0.00 0.00 81 1011.0
20260505195433 53 327 10.0 18.0 0.00 0.00 0.00 81 1011.1
20260505195334 53 354 11.0 18.0 0.00 0.00 0.00 81 1011.1
20260505195233 53 350 11.0 18.0 0.00 0.00 0.00 81 1011.0
20260505195133 53 0 10.0 18.0 0.00 0.00 0.00 81 1011.0
20260505195032 53 330 9.0 18.0 0.00 0.00 0.00 81 1011.1
20260505194932 53 334 10.0 18.0 0.00 0.00 0.00 81 1011.1
20260505194832 53 336 10.0 18.0 0.00 0.00 0.00 81 1011.0
20260505194731 53 350 11.0 18.0 0.00 0.00 0.00 81 1011.0
20260505194632 53 334 12.0 17.0 0.00 0.00 0.00 81 1011.0
20260505194532 53 340 10.0 17.0 0.00 0.00 0.00 81 1011.0
20260505194431 53 340 9.0 17.0 0.00 0.00 0.00 81 1011.0
20260505194333 53 330 10.0 17.0 0.00 0.00 0.00 81 1011.0
20260505194232 53 344 11.0 17.0 0.00 0.00 0.00 81 1011.0
20260505194132 53 353 10.0 17.0 0.00 0.00 0.00 81 1010.9
20260505194033 53 3 11.0 20.0 0.00 0.00 0.00 81 1011.0
20260505193934 53 0 11.0 20.0 0.00 0.00 0.00 81 1011.0
20260505193833 53 338 10.0 20.0 0.00 0.00 0.00 81 1011.0
20260505193733 53 350 9.0 20.0 0.00 0.00 0.00 81 1011.0
20260505193632 53 353 9.0 20.0 0.00 0.00 0.00 80 1011.1
20260505193531 53 344 9.0 20.0 0.00 0.00 0.00 80 1011.0
20260505193433 53 343 8.0 20.0 0.00 0.00 0.00 80 1011.0
20260505193332 53 3 9.0 20.0 0.00 0.00 0.00 80 1011.0
20260505193232 53 358 11.0 20.0 0.00 0.00 0.00 80 1011.0
20260505193132 53 8 11.0 20.0 0.00 0.00 0.00 80 1011.0
20260505193032 53 341 11.0 20.0 0.00 0.00 0.00 80 1011.0
20260505192933 53 319 11.0 19.0 0.00 0.00 0.00 80 1010.9
20260505192831 53 337 11.0 19.0 0.00 0.00 0.00 80 1011.0
20260505192733 53 0 10.0 19.0 0.00 0.00 0.00 80 1010.9
20260505192632 53 355 9.0 19.0 0.00 0.00 0.00 80 1011.0
20260505192532 53 6 8.0 19.0 0.00 0.00 0.00 79 1010.9
20260505192431 53 334 8.0 19.0 0.00 0.00 0.00 79 1010.9
20260505192331 53 355 9.0 19.0 0.00 0.00 0.00 79 1010.8
20260505192233 53 337 11.0 19.0 0.00 0.00 0.00 79 1010.9
20260505192134 53 0 10.0 19.0 0.00 0.00 0.00 79 1010.9
20260505192032 53 0 10.0 19.0 0.00 0.00 0.00 80 1010.9
20260505191933 53 337 11.0 19.0 0.00 0.00 0.00 80 1010.9
20260505191833 53 331 11.0 19.0 0.00 0.00 0.00 80 1010.8
20260505191732 53 324 10.0 16.0 0.00 0.00 0.00 80 1011.0
20260505191632 53 354 10.0 16.0 0.00 0.00 0.00 80 1010.9
20260505191531 53 343 9.0 16.0 0.00 0.00 0.00 80 1010.8
20260505191431 53 333 7.0 16.0 0.00 0.00 0.00 80 1010.9
20260505191342 53 11 8.0 16.0 0.00 0.00 0.00 79 1010.9
20260505191233 53 350 10.0 16.0 0.00 0.00 0.00 79 1010.9
20260505191132 53 0 10.0 20.0 0.00 0.00 0.00 79 1010.8
20260505191032 53 0 11.0 20.0 0.00 0.00 0.00 79 1010.9
20260505190931 53 347 9.0 20.0 0.00 0.00 0.00 80 1010.7
20260505190832 53 348 9.0 20.0 0.00 0.00 0.00 80 1010.8
20260505190731 53 0 9.0 20.0 0.00 0.00 0.00 80 1010.8
20260505190632 53 358 9.0 20.0 0.00 0.00 0.00 80 1010.8
20260505190535 53 353 8.0 20.0 0.00 0.00 0.00 80 1010.8
20260505190435 53 330 8.0 20.0 0.00 0.00 0.00 80 1010.7
20260505190337 53 336 11.0 20.0 0.00 0.00 0.00 80 1010.7
20260505190234 53 313 12.0 20.0 0.00 0.00 0.00 80 1010.7
20260505190034 53 358 10.0 17.0 0.00 0.00 0.00 80 1010.7
20260505185934 53 331 9.0 18.0 0.00 0.00 0.00 80 1010.7
20260505185833 53 314 10.0 18.0 0.00 0.00 0.00 80 1010.6
20260505185732 53 338 10.0 18.0 0.00 0.00 0.00 80 1010.7
20260505185632 53 355 10.0 20.0 0.00 0.00 0.00 80 1010.7
20260505185532 53 355 11.0 20.0 0.00 0.00 0.00 80 1010.7
20260505185432 53 341 11.0 20.0 0.00 0.00 0.00 80 1010.7
20260505185331 53 329 9.0 20.0 0.00 0.00 0.00 80 1010.6
20260505185232 53 327 9.0 20.0 0.00 0.00 0.00 80 1010.7
20260505185131 53 344 9.0 20.0 0.00 0.00 0.00 79 1010.6
20260505185032 53 340 11.0 20.0 0.00 0.00 0.00 79 1010.7
20260505184932 53 354 12.0 20.0 0.00 0.00 0.00 79 1010.6
20260505184831 53 340 12.0 20.0 0.00 0.00 0.00 79 1010.5
20260505184732 53 333 11.0 20.0 0.00 0.00 0.00 79 1010.6
20260505184632 53 321 10.0 19.0 0.00 0.00 0.00 79 1010.6
20260505184532 53 353 10.0 19.0 0.00 0.00 0.00 79 1010.5
20260505184432 53 350 10.0 21.0 0.00 0.00 0.00 79 1010.5
20260505184332 53 6 9.0 21.0 0.00 0.00 0.00 79 1010.6
20260505184235 53 330 8.0 21.0 0.00 0.00 0.00 79 1010.5
20260505184135 53 0 7.0 21.0 0.00 0.00 0.00 79 1010.5
20260505184034 53 0 8.0 21.0 0.00 0.00 0.00 79 1010.5
20260505183934 53 313 10.0 21.0 0.00 0.00 0.00 79 1010.5
20260505183833 53 354 11.0 21.0 0.00 0.00 0.00 79 1010.5
20260505183733 53 355 12.0 21.0 0.00 0.00 0.00 79 1010.5
20260505183632 53 330 12.0 21.0 0.00 0.00 0.00 79 1010.5
20260505183531 54 329 11.0 21.0 0.00 0.00 0.00 79 1010.5
20260505183430 54 330 8.0 15.0 0.00 0.00 0.00 79 1010.4
20260505183331 54 323 10.0 15.0 0.00 0.00 0.00 79 1010.4
20260505183231 54 0 11.0 15.0 0.00 0.00 0.00 79 1010.5
20260505183131 54 333 10.0 15.0 0.00 0.00 0.00 79 1010.5
20260505183031 54 338 10.0 17.0 0.00 0.00 0.00 79 1010.4
20260505182931 54 0 9.0 18.0 0.00 0.00 0.00 79 1010.4
20260505182832 54 0 9.0 18.0 0.00 0.00 0.00 79 1010.4
20260505182730 54 350 10.0 18.0 0.00 0.00 0.00 79 1010.4
20260505182628 54 338 10.0 18.0 0.00 0.00 0.00 79 1010.5
20260505182524 54 317 11.0 19.0 0.00 0.00 0.00 79 1010.4
20260505182424 54 4 11.0 19.0 0.00 0.00 0.00 79 1010.3
20260505182325 54 334 11.0 19.0 0.00 0.00 0.00 78 1010.5
20260505182224 54 334 11.0 19.0 0.00 0.00 0.00 78 1010.4
20260505182123 54 316 13.0 19.0 0.00 0.00 0.00 78 1010.4
20260505182024 54 305 13.0 19.0 0.00 0.00 0.00 78 1010.3
20260505181923 54 17 11.0 19.0 0.00 0.00 0.00 78 1010.4
20260505181822 54 338 11.0 19.0 0.00 0.00 0.00 78 1010.3
20260505181722 54 334 11.0 19.0 0.00 0.00 0.00 78 1010.3
20260505181621 54 326 11.0 19.0 0.00 0.00 0.00 78 1010.2
20260505181521 54 340 10.0 19.0 0.00 0.00 0.00 78 1010.3
20260505181419 54 0 8.0 19.0 0.00 0.00 0.00 78 1010.4
20260505181315 54 8 8.0 19.0 0.00 0.00 0.00 78 1010.3
20260505181214 54 341 9.0 20.0 0.00 0.00 0.00 78 1010.3
20260505181114 54 358 10.0 20.0 0.00 0.00 0.00 78 1010.3
20260505181015 54 327 12.0 20.0 0.00 0.00 0.00 77 1010.4
20260505180915 54 353 12.0 20.0 0.00 0.00 0.00 78 1010.3
20260505180813 54 0 10.0 20.0 0.00 0.00 0.00 77 1010.4
20260505180711 54 355 10.0 20.0 0.00 0.00 0.00 77 1010.3
20260505180610 54 330 12.0 20.0 0.00 0.00 0.00 77 1010.4
20260505180506 54 357 13.0 20.0 0.00 0.00 0.00 77 1010.4
20260505180404 54 0 11.0 20.0 0.00 0.00 0.00 77 1010.4
20260505180304 54 350 9.0 20.0 0.00 0.00 0.00 77 1010.4
20260505180206 54 347 11.0 19.0 0.00 0.00 0.00 77 1010.4
20260505180106 54 329 12.0 19.0 0.00 0.00 0.00 76 1010.4
20260505180005 54 0 11.0 19.0 0.00 0.00 0.00 76 1010.3
20260505175905 54 340 11.0 19.0 0.00 0.00 0.00 77 1010.3
20260505175803 54 6 10.0 19.0 0.00 0.00 0.00 77 1010.3
20260505175704 54 353 7.0 19.0 0.00 0.00 0.00 77 1010.4
20260505175601 54 345 9.0 19.0 0.00 0.00 0.00 77 1010.4
20260505175458 54 1 10.0 19.0 0.00 0.00 0.00 77 1010.3
20260505175357 54 344 10.0 19.0 0.00 0.00 0.00 77 1010.3
20260505175257 54 0 11.0 19.0 0.00 0.00 0.00 77 1010.3
20260505175157 54 0 11.0 18.0 0.00 0.00 0.00 77 1010.3
20260505175056 54 345 11.0 18.0 0.00 0.00 0.00 77 1010.4
20260505174953 54 316 10.0 18.0 0.00 0.00 0.00 77 1010.3